GFSNGP_700_rhum_000.txt.gz
RH
48 46 52 54 52 48 45 43 40 34 31 29 34 37 33 31 39 55 57 57 58 61 61 65 65 67 70 67 70 76 82 82 80 76 75 67 62 55 41 22 12 10 9 8
47 45 41 40 44 45 44 43 36 29 22 40 46 46 48 54 56 55 57 59 61 64 68 71 67 73 86 85 88 89 89 86 81 77 73 68 48 25 14 12 12 11 10 9
29 28 24 30 31 32 29 26 36 48 49 49 49 52 54 57 60 62 62 66 68 72 74 72 81 84 85 75 71 74 91 89 83 80 70 47 24 15 13 13 13 13 12 11
31 37 60 43 50 51 53 54 54 56 57 57 55 54 61 64 64 66 70 73 70 77 77 79 81 86 90 77 77 90 90 83 82 74 51 28 15 14 16 16 16 17 16 15
55 60 51 52 50 52 54 57 57 56 55 56 55 52 60 64 66 68 69 69 80 83 86 93 99 98 86 79 89 94 90 84 66 38 19 14 16 17 20 21 22 23 21 18
65 64 69 56 57 53 50 58 50 51 54 60 56 59 58 62 66 77 76 87 90 98 100 100 96 90 91 89 90 90 82 58 28 13 14 16 16 20 25 28 28 28 25 21
65 67 56 54 60 58 57 44 51 62 64 63 73 78 78 79 80 83 86 97 98 98 98 93 87 90 93 94 93 82 46 16 10 13 14 14 18 28 32 32 33 32 27 21
70 75 69 61 69 65 59 68 70 73 77 78 80 76 76 86 84 86 90 95 98 100 93 91 85 89 95 93 88 74 29 7 11 12 13 20 32 37 37 37 36 30 23 19
54 60 60 64 66 68 75 81 79 78 75 71 66 82 82 70 73 94 99 96 100 100 100 91 89 98 94 88 74 41 8 11 13 13 26 41 43 43 42 40 30 23 18 15
64 60 68 81 83 82 81 79 72 60 53 45 46 50 52 55 56 63 72 84 92 95 89 90 98 95 70 25 6 8 11 13 20 38 46 47 46 47 44 32 24 18 16 16
64 61 62 63 66 68 62 52 49 36 34 38 39 40 40 44 49 52 57 67 73 80 92 97 75 24 9 10 11 14 21 38 46 46 47 48 49 47 37 29 22 20 21 25
42 42 42 41 45 45 40 37 37 38 37 36 36 39 42 45 47 53 66 73 78 86 81 40 16 13 13 15 26 43 44 43 47 51 51 52 49 43 35 28 22 24 28 33
29 35 37 35 34 37 37 36 36 38 38 38 41 46 49 48 45 54 72 76 78 62 26 20 14 15 30 47 47 46 45 47 50 53 54 51 43 35 29 23 22 24 30 37
37 37 37 39 41 42 43 45 42 39 41 43 48 50 44 42 50 74 80 75 48 29 18 16 23 43 52 49 51 47 46 50 52 51 48 41 35 33 27 24 25 26 30 43
42 47 48 47 48 47 47 43 38 40 41 43 44 36 36 55 83 88 71 43 27 17 17 29 47 54 55 54 48 44 47 48 47 41 37 36 34 28 26 31 33 35 39 43
49 48 52 54 52 49 43 37 39 42 42 40 37 33 41 69 84 64 37 25 18 20 37 52 55 56 55 49 47 46 44 40 38 39 38 32 27 28 31 36 42 49 49 51
49 58 56 50 45 38 36 39 45 46 48 48 38 38 58 60 41 28 24 22 30 47 56 56 54 57 52 50 46 37 34 36 38 33 27 26 28 33 38 47 55 60 59 56
55 51 48 44 40 39 40 46 51 54 48 34 31 33 30 28 29 32 38 45 53 57 62 55 55 48 42 37 36 35 29 22 22 24 27 29 33 40 53 64 65 62 60 58
41 43 48 49 43 42 46 51 53 47 36 35 36 37 39 44 51 53 55 57 58 47 45 47 44 36 33 34 27 19 19 22 24 26 28 34 44 53 60 64 64 62 64 69
38 32 37 48 46 49 56 58 51 44 44 46 48 53 58 61 60 58 58 56 60 48 43 38 33 32 28 19 19 21 23 23 24 28 40 53 61 62 64 66 67 70 74 81
36 33 31 36 46 56 65 61 51 52 54 57 62 66 66 67 69 66 60 49 56 48 37 37 36 23 18 18 20 21 23 30 41 50 55 59 61 62 66 69 73 78 84 91
36 37 58 58 60 73 76 65 61 62 64 65 70 73 74 73 71 67 67 59 45 40 40 35 23 19 21 23 22 24 33 45 53 55 56 60 63 67 72 76 80 83 89 91
52 57 64 54 61 78 79 71 68 68 68 71 77 83 83 74 67 59 52 49 44 45 37 24 21 25 25 24 27 34 45 53 56 58 60 63 66 74 82 83 86 88 91 92
55 65 58 68 76 85 82 70 74 80 76 79 86 89 82 65 63 70 50 49 50 41 27 24 27 28 28 27 33 45 54 57 57 60 66 71 77 82 86 89 90 92 94 94
62 72 77 80 86 94 85 76 85 88 83 87 93 88 74 73 57 50 54 54 45 29 24 29 30 29 30 36 47 55 58 59 61 66 70 76 84 89 93 94 95 94 93 91
69 72 81 87 94 96 93 91 90 89 91 90 77 75 70 58 58 59 58 45 30 26 30 32 31 31 34 47 57 60 60 61 67 72 80 85 89 91 95 96 94 91 93 92
66 75 83 89 94 95 96 95 94 93 73 65 65 62 58 58 56 52 42 30 27 33 35 35 34 36 48 60 63 62 63 68 79 84 89 92 92 92 95 97 96 94 90 88

GFSNGP_700_rhum_003.txt.gz
RH
52 51 48 47 47 50 54 52 47 43 39 39 41 47 45 42 45 39 54 57 59 63 70 70 71 71 72 79 80 67 74 80 72 62 68 73 72 71 65 50 32 18 15 16
52 50 50 55 57 57 54 50 49 46 44 39 29 35 45 48 52 54 55 58 64 68 71 72 74 75 70 66 68 71 90 85 67 72 78 79 77 65 45 26 15 16 15 16
49 48 44 36 43 49 53 50 47 47 37 38 51 52 52 52 52 55 61 64 69 72 76 78 71 67 69 75 89 99 88 68 78 82 84 80 64 41 21 15 14 13 16 23
26 32 54 33 33 40 43 41 42 43 52 56 57 59 60 57 59 64 68 68 68 67 59 62 80 88 92 100 100 84 69 83 87 86 84 60 34 14 12 12 12 16 24 32
34 44 40 54 51 56 56 58 56 57 58 56 57 55 57 59 56 57 56 56 60 60 73 87 93 97 100 98 73 74 85 90 92 87 51 22 12 11 11 12 15 28 36 35
48 57 64 50 56 58 58 58 58 55 56 54 53 54 54 48 48 46 47 56 71 85 99 100 100 99 87 79 79 80 88 92 85 62 37 18 11 11 12 25 37 38 32 38
58 60 54 55 60 61 58 43 34 48 56 55 56 52 50 43 40 42 47 52 73 84 88 100 99 89 95 88 81 89 93 77 46 12 8 10 11 20 34 36 34 38 39 41
68 68 64 53 52 56 51 47 48 56 57 55 58 60 41 33 27 30 37 46 55 67 70 80 88 84 88 81 80 82 65 24 9 10 11 17 30 34 32 38 43 44 43 39
60 59 54 49 50 53 53 58 61 64 67 72 60 38 27 27 29 33 38 46 56 57 56 62 76 74 75 76 66 33 11 11 12 16 31 36 27 29 35 41 45 44 39 30
63 61 56 58 62 68 71 73 74 75 68 49 32 28 28 29 33 37 41 44 46 50 60 71 75 77 70 43 21 13 12 15 30 37 33 24 27 32 39 45 42 35 29 25
67 66 66 64 66 68 67 60 58 53 38 28 28 28 29 32 34 37 42 46 50 59 67 73 77 56 32 21 15 14 26 40 42 32 26 23 24 32 38 37 36 33 28 24
68 60 65 68 62 55 54 51 43 34 30 30 31 31 32 34 37 42 42 42 50 62 73 75 56 34 22 16 20 38 45 43 30 24 23 26 27 24 29 33 29 24 25 30
57 57 51 53 48 42 42 36 30 32 35 37 34 32 35 39 42 40 38 44 59 75 76 58 35 21 16 28 46 50 41 28 24 26 25 25 26 26 21 17 19 21 28 34
34 34 39 39 36 39 41 42 44 45 44 34 30 36 41 42 38 37 41 61 76 75 52 31 21 21 39 50 48 36 29 30 27 23 24 23 18 15 16 18 20 25 29 35
40 36 33 34 38 42 47 49 48 42 28 26 33 40 44 45 43 47 57 65 56 36 26 22 32 47 50 45 33 29 29 24 23 22 16 15 17 18 20 23 26 31 36 43
38 39 43 47 51 51 47 42 34 28 28 34 40 46 49 43 41 46 44 36 30 28 34 44 48 49 38 32 30 28 24 24 21 15 16 18 19 20 22 26 34 42 48 50
47 56 52 48 45 45 43 40 38 33 35 41 45 46 39 34 34 33 32 36 43 47 51 50 46 39 35 32 26 25 25 18 16 17 19 19 19 23 31 39 46 52 55 53
51 45 40 43 46 43 33 30 37 39 42 45 45 41 38 38 40 43 46 48 51 54 58 54 48 41 34 28 29 27 18 16 17 19 19 20 24 33 44 55 58 57 54 52
43 46 46 38 28 17 15 26 33 44 51 52 45 44 45 48 52 56 59 59 61 56 52 51 47 38 34 34 28 19 17 19 19 19 22 30 40 48 50 54 54 56 58 60
44 33 31 14 12 15 20 34 45 54 60 53 50 51 54 58 62 67 71 72 74 60 50 51 40 37 36 31 22 18 21 20 20 23 34 44 49 50 51 54 57 62 65 69
29 14 9 8 21 27 36 43 52 69 67 60 59 61 64 68 72 78 82 78 73 62 57 44 43 41 34 24 18 22 24 23 25 33 43 49 49 50 53 57 63 69 75 80
10 7 7 10 31 47 42 38 54 71 73 70 69 71 73 75 80 87 92 82 60 55 44 44 43 38 27 20 23 26 26 26 30 40 49 52 52 55 58 62 69 72 81 85
10 10 12 18 34 53 60 66 75 81 77 72 75 83 85 87 92 95 76 65 56 49 47 44 40 31 22 23 28 28 28 30 39 52 55 55 56 61 64 69 74 79 84 87
12 12 16 25 53 56 67 76 81 88 80 71 78 94 96 96 99 89 70 59 52 49 45 41 32 24 26 30 30 29 33 42 53 57 58 60 62 65 70 76 79 83 86 88
14 18 23 34 57 69 76 88 93 91 85 91 99 99 99 95 66 59 56 54 51 46 39 30 24 27 32 34 32 36 47 58 62 60 60 64 72 76 80 82 81 83 85 85
16 32 50 55 66 79 86 91 97 100 100 100 100 99 82 74 65 59 59 54 43 35 27 24 28 32 32 32 38 53 63 64 62 62 67 75 80 82 81 81 82 83 84 84
30 53 64 73 82 88 92 96 100 100 100 100 83 76 69 64 65 59 46 37 30 25 24 27 29 30 33 41 56 66 66 65 66 71 77 84 87 86 82 85 84 83 84 83

GFSNGP_700_rhum_009.txt.gz
RH
58 58 58 54 59 58 55 55 52 50 47 41 44 46 42 41 42 44 48 47 49 48 56 62 67 68 70 68 70 79 78 91 93 75 78 75 44 43 46 44 34 15 9 11
53 57 60 59 56 54 54 52 54 53 47 40 46 49 42 44 48 47 47 48 50 57 59 62 66 67 64 69 74 87 89 89 53 54 49 39 40 44 40 24 10 11 11 6
60 60 62 66 52 54 54 51 43 45 30 44 50 44 44 44 43 43 45 53 55 54 53 51 52 64 70 70 76 86 66 39 40 38 39 41 42 36 17 11 12 9 6 6
53 55 55 49 47 48 48 48 51 50 51 54 55 53 53 50 46 54 58 59 55 45 33 40 57 66 68 74 62 56 44 37 38 39 42 41 30 14 13 13 9 5 6 7
48 48 45 38 39 38 39 44 47 51 58 59 59 55 46 45 57 62 57 52 37 22 22 31 42 51 56 49 40 39 36 41 42 43 39 24 16 16 15 11 5 6 7 8
49 38 48 40 39 35 36 36 32 37 42 47 47 48 56 64 61 55 46 32 18 17 19 24 30 34 36 35 36 38 42 46 45 39 23 18 18 19 15 7 6 7 8 8
43 36 34 34 31 40 51 36 36 51 54 56 66 68 66 60 53 44 30 20 19 20 22 26 30 35 36 36 40 44 49 49 40 26 21 20 21 19 9 8 9 9 9 8
47 42 43 48 45 47 46 53 54 65 72 73 71 66 60 53 45 30 22 21 23 24 26 29 34 37 37 40 43 48 50 40 28 24 23 25 21 12 10 11 11 10 8 8
45 39 36 39 41 52 55 60 54 53 58 62 64 62 55 42 30 25 26 26 24 24 28 33 37 37 36 38 44 48 41 31 26 26 29 25 15 13 12 13 12 10 9 9
55 56 57 58 58 61 63 61 62 66 67 62 61 56 43 32 29 28 27 24 22 26 32 36 36 36 39 44 46 41 31 28 29 28 23 17 17 17 15 14 11 11 11 10
63 63 63 63 61 59 61 66 71 72 65 61 51 42 34 32 31 26 20 17 21 30 36 38 39 40 43 44 37 31 31 30 29 24 20 19 18 17 16 13 12 13 12 12
71 70 71 73 74 75 75 75 75 68 60 47 39 36 34 32 24 18 16 22 29 36 41 42 43 44 40 33 34 34 32 29 25 23 22 20 19 17 15 13 14 15 16 21
71 54 84 88 86 81 79 75 74 65 48 40 38 36 31 26 20 17 20 28 36 41 44 44 41 35 35 39 39 37 30 28 27 27 24 23 22 17 14 13 15 16 19 27
76 52 82 89 88 92 89 73 51 41 38 36 34 30 21 11 16 20 27 33 38 39 38 36 37 43 48 53 49 40 36 35 33 30 28 24 20 16 15 15 15 15 20 32
66 74 52 48 53 58 51 41 39 37 35 32 19 11 8 9 13 20 30 36 38 38 38 43 50 58 63 64 55 43 40 38 35 30 26 22 19 17 18 19 19 18 20 30
50 64 62 56 53 49 40 39 36 34 24 17 11 7 5 7 15 28 38 42 43 45 49 54 60 66 71 72 58 46 44 39 33 29 26 22 19 19 21 22 21 21 32 41
42 58 58 50 42 42 42 37 35 23 17 12 7 8 11 17 28 38 46 48 51 54 58 60 65 72 79 80 61 48 39 34 32 30 25 21 20 22 24 23 26 35 42 46
41 48 50 51 45 40 40 37 26 19 11 8 8 12 16 21 35 50 54 55 59 63 67 70 75 82 90 80 55 43 37 34 31 27 23 21 23 24 26 28 34 46 47 48
50 56 50 46 43 43 38 28 24 16 12 9 8 16 28 35 48 58 63 65 68 73 79 84 86 90 86 65 47 40 37 32 28 23 21 21 25 26 27 38 46 50 52 54
54 46 42 40 44 39 34 29 23 16 11 9 16 28 37 47 60 68 72 75 79 83 86 88 87 86 71 49 43 39 32 27 23 21 21 23 25 26 33 49 53 52 56 61
45 45 46 44 39 38 34 27 19 12 12 12 18 30 41 56 72 77 78 79 78 81 88 89 88 75 51 43 37 31 26 23 21 20 22 24 25 34 50 52 52 56 64 67
49 47 44 42 39 33 28 20 14 13 13 15 22 35 47 62 77 83 81 80 82 87 88 90 76 53 43 34 30 26 22 20 20 22 24 27 38 51 53 52 55 63 67 66
50 44 39 34 32 30 22 14 14 14 19 30 38 45 58 72 82 86 85 88 89 89 89 69 52 40 32 29 25 21 20 20 24 27 33 44 53 54 55 56 61 67 68 67
37 33 32 33 32 22 16 13 11 15 26 36 48 59 73 81 87 89 89 89 89 84 59 46 33 30 27 22 20 20 22 27 31 37 48 55 56 54 57 64 68 72 69 67
32 34 35 32 26 19 12 12 15 23 34 48 66 77 82 85 91 95 95 91 66 50 37 32 29 24 21 20 19 21 25 35 46 52 52 54 57 62 66 69 70 70 67 65
34 34 30 22 14 12 13 18 26 38 52 64 76 84 89 91 92 88 66 51 39 33 31 26 23 21 19 18 19 26 39 51 56 55 56 60 66 70 68 69 68 70 70 69
35 29 22 15 12 14 18 25 37 57 72 80 88 91 92 85 64 54 43 35 33 27 24 24 22 20 18 21 31 47 56 59 60 60 66 71 73 74 71 70 69 64 64 64

GFSNGP_700_rhum_012.txt.gz
RH
64 60 60 59 61 61 73 70 60 52 54 47 48 45 42 45 42 41 42 45 52 54 51 50 52 60 63 67 72 75 72 68 77 89 49 39 35 37 41 38 26 14 14 11
61 62 64 62 58 57 58 68 63 57 53 53 52 48 43 48 48 45 46 51 54 50 50 53 58 58 61 66 69 76 76 75 80 62 40 36 40 40 36 24 16 16 13 9
59 61 66 67 65 59 53 54 54 56 44 53 45 43 46 47 48 52 53 52 50 50 56 57 54 50 54 62 77 79 80 83 70 44 36 40 40 35 24 18 19 16 11 6
63 82 67 52 48 48 51 49 51 51 53 53 51 48 50 49 46 47 46 47 53 59 59 51 38 38 51 63 74 78 64 56 48 37 38 41 36 24 20 22 18 13 7 6
71 60 51 44 47 46 47 41 37 43 51 53 55 56 54 49 52 54 54 58 62 57 45 28 20 25 37 56 61 49 43 43 37 37 42 38 25 24 25 20 15 9 8 8
84 58 53 42 42 38 41 42 36 40 49 52 58 61 58 60 58 56 63 63 53 39 21 17 19 23 29 38 41 37 41 41 42 46 39 28 27 28 22 17 11 10 10 9
83 95 46 43 37 36 44 39 33 33 39 52 60 59 56 57 62 66 60 50 32 20 18 20 22 26 33 39 40 46 46 46 49 41 30 29 29 26 19 14 12 11 11 10
80 95 65 46 44 43 38 36 40 41 47 53 57 62 67 70 67 59 46 30 21 20 21 22 25 32 39 41 43 43 44 48 42 32 31 30 27 21 17 15 14 12 11 11
63 61 51 50 50 50 44 44 49 54 64 71 75 73 66 62 54 39 28 23 22 20 19 22 30 38 39 38 41 45 47 40 32 34 33 30 22 19 18 17 14 12 12 11
60 58 47 37 37 40 52 59 63 58 59 65 67 67 57 46 35 27 25 23 19 17 20 26 32 35 39 42 45 44 35 35 38 37 32 26 23 22 20 16 15 14 13 13
47 48 54 58 59 60 58 58 61 68 72 72 63 51 40 32 28 27 23 19 17 18 22 29 34 38 42 43 39 35 42 47 46 37 29 25 25 22 18 18 17 16 16 16
64 65 67 67 66 65 64 67 72 75 74 66 57 41 31 30 27 24 18 15 17 22 26 31 36 41 40 36 41 50 58 58 49 36 30 29 24 19 19 18 17 17 19 20
71 65 65 53 70 75 78 80 80 77 68 52 35 33 30 26 14 9 9 12 16 22 29 36 39 37 38 46 55 61 64 63 48 37 34 27 22 20 19 18 18 17 19 21
69 75 72 61 73 86 87 86 83 83 44 35 33 29 17 12 12 9 8 11 19 30 36 38 39 43 50 56 61 66 69 66 48 38 32 26 24 24 21 18 17 17 21 22
74 78 71 60 78 89 88 84 60 39 37 33 24 16 14 13 10 7 8 16 27 35 41 43 48 52 57 61 66 71 74 66 46 36 29 28 26 23 20 19 19 20 20 21
59 66 76 72 58 56 54 45 41 38 34 22 19 16 14 12 10 11 16 27 38 44 47 52 57 62 66 70 72 75 75 58 41 33 30 27 24 21 20 20 20 20 22 31
72 46 62 85 67 58 45 44 40 35 26 22 19 18 15 10 13 19 28 37 44 50 54 60 65 71 75 76 78 79 70 48 38 32 28 24 22 20 19 20 20 22 30 42
75 62 82 71 53 48 45 40 37 29 26 23 21 15 11 13 22 30 36 46 53 59 64 69 74 78 80 83 83 79 56 41 32 28 25 22 20 19 20 22 24 32 40 44
73 61 58 60 52 43 40 38 32 31 29 25 16 13 14 17 22 28 38 50 62 69 72 76 78 79 85 88 84 63 44 33 28 25 22 18 18 19 21 26 34 44 47 47
65 64 60 47 43 40 40 38 35 32 26 18 16 15 15 14 19 29 44 63 71 76 80 79 80 88 90 84 66 46 33 28 24 20 18 18 20 22 28 38 48 48 49 54
73 70 50 46 43 41 40 38 33 27 20 17 18 16 15 20 28 41 58 73 77 81 82 84 93 88 83 64 44 31 27 22 19 18 18 20 23 30 39 48 50 50 56 60
85 56 46 44 44 41 36 34 30 24 18 18 14 14 20 31 42 54 69 77 83 87 93 94 89 80 56 38 30 26 20 19 18 17 18 23 32 41 47 50 52 56 60 62
50 48 47 41 36 33 31 32 27 19 16 12 12 18 27 40 56 68 78 84 89 92 90 86 68 45 34 30 23 20 20 18 16 18 24 36 44 48 49 52 57 59 60 64
44 39 35 32 32 33 33 29 22 14 12 13 17 28 40 52 65 75 82 88 88 86 74 50 38 33 28 22 20 20 18 17 19 27 38 47 50 51 53 60 60 59 60 61
36 35 33 32 33 32 28 20 14 13 14 17 23 36 53 65 73 80 85 84 73 53 43 36 32 26 22 22 22 19 17 21 34 43 46 49 54 58 63 64 62 59 57 56
36 37 36 35 32 26 20 15 13 14 15 18 27 48 67 76 82 84 72 56 49 40 36 32 27 23 24 24 20 18 21 36 47 49 52 58 63 66 67 69 67 61 57 55
42 40 38 34 28 21 15 13 13 16 24 36 54 70 80 83 73 62 56 47 40 38 35 28 25 27 26 22 18 24 42 52 54 57 62 67 70 72 72 70 68 60 56 53

GFSNGP_700_rhum_018.txt.gz
RH
96 70 62 60 71 78 79 70 60 50 46 42 40 38 44 46 42 33 37 38 39 39 43 46 48 54 58 58 54 53 58 61 62 64 64 68 73 69 37 29 27 27 26 29
66 71 68 72 69 63 62 70 61 53 50 48 47 49 49 46 44 45 37 42 42 41 44 48 52 57 59 56 54 58 61 60 58 55 65 68 66 39 31 28 30 28 32 31
62 61 57 63 62 62 64 60 67 70 52 52 53 52 51 51 47 38 45 45 43 48 50 52 56 59 57 54 58 61 55 48 46 54 56 52 37 31 29 33 30 34 35 29
66 63 70 52 48 47 56 52 57 57 62 58 55 57 57 54 52 49 43 41 46 52 54 56 60 57 54 60 60 49 35 36 47 40 36 32 30 31 35 31 36 37 33 24
70 68 60 52 52 51 51 48 55 58 58 59 60 56 54 54 53 53 51 49 53 58 61 60 56 57 62 58 38 23 26 34 33 29 29 32 33 35 32 38 39 37 28 29
95 70 68 50 42 42 49 54 53 52 54 57 59 58 53 52 53 55 56 56 58 59 56 58 60 62 52 29 21 23 26 27 28 31 33 34 36 35 42 44 41 34 33 30
95 94 67 62 57 42 48 49 39 42 45 52 52 48 51 60 58 58 57 56 58 60 61 64 60 45 26 22 23 23 23 25 30 32 35 36 39 46 46 42 40 36 33 28
99 96 89 58 60 46 48 42 36 39 35 36 46 53 59 64 64 64 63 65 64 65 66 53 33 24 22 20 19 20 23 28 31 36 35 42 46 46 48 45 37 35 31 30
77 68 59 61 51 51 46 43 45 42 39 40 45 57 65 67 65 62 65 70 69 58 41 26 24 21 18 16 19 22 26 31 35 36 44 46 48 50 48 40 37 34 31 27
76 69 63 59 59 55 51 40 39 42 47 50 54 58 61 63 71 73 67 59 44 29 26 23 18 14 14 16 20 24 31 34 38 43 44 52 55 54 45 41 36 31 27 20
73 66 61 59 60 59 58 44 48 52 52 56 63 70 71 69 66 57 43 32 28 25 17 13 13 14 15 17 24 32 35 40 42 46 55 56 55 53 47 39 31 27 19 14
69 65 68 63 64 54 51 56 60 60 58 61 66 70 72 67 57 43 30 27 19 15 16 15 12 12 18 25 32 36 42 43 50 58 59 58 54 49 45 34 28 19 15 16
60 58 49 48 49 58 62 62 64 68 67 72 78 77 70 54 36 30 21 17 17 17 15 11 13 20 25 32 38 42 45 54 61 64 62 58 56 51 38 31 20 14 14 16
63 67 65 69 68 64 61 62 71 77 80 84 83 76 50 33 26 19 18 19 18 15 13 15 18 24 33 39 42 49 57 63 67 68 65 62 56 38 31 22 15 10 12 16
42 56 61 64 60 66 71 76 82 87 90 91 87 61 34 24 21 20 21 20 17 15 16 19 24 34 38 40 49 58 65 69 71 69 67 59 39 32 22 15 12 12 13 17
44 52 64 66 73 79 75 80 89 94 95 89 50 33 25 22 23 24 22 19 18 18 20 24 29 32 38 50 60 66 70 73 74 72 62 39 32 23 16 13 12 13 16 28
59 70 78 85 83 83 82 92 99 97 71 41 33 26 25 28 28 23 21 21 19 17 17 20 28 40 50 60 68 70 74 78 78 63 39 33 23 17 14 13 13 16 28 39
72 74 71 64 54 71 81 96 86 54 42 34 28 29 31 30 24 23 22 19 15 14 19 31 39 48 58 64 68 76 81 79 59 39 33 25 18 15 14 13 17 26 36 40
82 80 69 72 64 82 80 69 53 43 34 32 33 33 30 26 24 23 18 14 14 20 30 36 46 56 64 69 77 83 76 52 40 34 27 20 16 15 14 17 26 37 41 44
95 86 80 74 78 84 71 54 42 35 35 36 33 29 26 24 23 18 14 12 18 22 32 43 52 60 71 78 79 66 46 40 35 29 20 16 16 15 16 26 37 41 44 47
97 89 86 77 79 65 50 38 38 39 35 30 29 27 25 24 19 14 12 13 22 27 38 48 62 73 76 72 55 46 40 36 29 20 17 18 16 16 23 35 41 45 48 48
95 96 79 65 59 43 39 40 34 31 30 29 28 27 24 18 15 13 13 16 22 33 47 60 68 70 62 53 46 40 37 29 19 18 19 16 16 23 36 42 46 48 47 50
98 80 66 52 43 42 36 31 30 30 30 29 28 24 19 16 14 12 13 22 34 48 60 68 66 60 53 45 41 37 27 18 18 19 16 17 28 38 42 46 48 48 50 51
80 70 52 45 40 32 31 32 32 32 31 28 24 21 17 14 12 15 27 38 49 61 67 65 60 51 45 42 36 25 16 19 19 15 17 31 40 45 48 49 50 54 56 52
81 50 44 36 33 34 35 36 36 34 30 26 22 16 12 12 19 29 41 52 62 66 66 58 50 46 42 36 22 16 19 17 14 17 31 41 47 50 52 54 57 60 58 51
48 39 35 36 37 37 38 37 35 31 26 18 14 12 14 20 31 42 55 66 69 67 58 50 46 41 34 19 17 17 13 13 21 36 44 49 52 55 56 57 59 62 57 46
37 38 39 36 37 40 39 35 29 21 17 13 12 14 20 30 47 66 73 74 67 57 51 46 42 31 17 16 13 9 12 27 41 46 51 55 59 58 59 59 59 50 45 41

GFSNGP_700_rhum_024.txt.gz
RH
97 97 99 100 60 74 86 98 96 88 58 42 36 35 35 38 44 47 46 45 46 43 43 45 46 47 48 49 49 53 59 66 72 67 67 73 75 71 53 39 28 22 21 20
94 99 99 100 99 99 94 99 96 98 48 40 39 42 39 38 37 38 40 43 47 49 47 48 48 48 49 50 52 56 65 73 70 68 73 72 69 52 40 30 24 22 21 21
99 100 99 99 99 98 99 99 98 90 50 40 46 48 49 48 48 40 38 37 41 44 47 48 49 52 53 55 58 64 73 71 69 71 71 62 44 36 29 24 23 23 24 24
98 96 79 67 80 80 78 79 77 64 57 57 53 53 52 52 53 54 54 36 43 47 48 50 54 57 59 59 64 74 71 70 69 66 52 41 34 27 23 24 24 26 26 26
96 89 67 54 54 60 66 59 61 63 63 64 65 61 58 57 57 58 55 53 50 48 53 57 62 67 68 69 75 71 68 67 54 39 35 31 26 24 24 25 28 27 27 29
94 90 74 56 58 49 57 58 52 54 57 59 62 63 59 59 59 58 57 56 58 58 61 67 69 71 74 72 70 68 58 42 32 30 25 24 23 25 25 28 27 27 31 35
90 95 62 57 60 53 57 54 47 52 54 57 54 54 59 60 60 60 62 64 65 67 72 73 72 71 70 68 62 48 33 28 25 24 22 23 25 27 29 27 28 33 35 39
95 90 77 60 54 55 47 42 45 41 51 56 60 59 61 62 62 62 64 67 69 70 71 70 70 70 64 52 38 29 24 22 21 20 22 25 30 32 29 30 36 38 39 40
69 63 60 65 55 53 49 48 44 35 42 56 61 62 62 60 62 64 67 67 69 70 72 72 66 55 41 30 24 19 18 19 19 22 27 31 30 30 36 40 39 41 40 36
77 63 65 67 62 60 56 47 53 44 43 42 58 64 65 67 70 71 70 70 72 73 72 62 44 31 24 16 16 18 16 19 24 29 32 31 34 39 41 41 44 40 37 33
77 70 63 62 62 64 61 57 53 46 49 49 53 54 66 68 68 67 72 74 69 58 42 30 22 16 17 17 15 17 20 25 29 31 31 36 40 41 43 49 44 39 35 29
64 70 71 66 66 68 67 58 50 56 55 54 62 66 68 72 72 71 65 54 42 31 20 17 19 20 18 17 18 21 25 28 28 30 36 38 42 46 55 47 41 36 29 22
75 74 72 71 70 67 68 57 57 63 66 64 63 72 73 75 73 68 51 34 23 19 21 23 22 19 18 19 21 25 26 26 30 34 39 43 45 49 43 41 37 30 23 13
78 80 76 73 62 54 57 58 66 70 71 73 76 77 80 79 72 47 30 22 22 24 25 22 20 20 20 22 23 22 25 29 34 40 44 47 49 46 43 37 32 26 14 10
83 79 67 66 67 68 67 68 71 75 78 79 82 86 88 83 57 30 24 26 27 26 24 22 22 21 20 19 20 25 29 33 41 46 48 49 46 44 38 33 27 16 9 10
59 57 63 71 74 73 72 70 77 81 84 89 94 94 90 57 28 26 28 29 27 25 23 22 19 16 17 20 22 26 31 39 43 48 49 48 44 38 33 26 15 10 10 10
46 52 56 58 64 67 71 80 88 94 97 97 96 93 52 31 28 30 30 27 24 23 21 18 16 16 18 20 23 30 37 41 46 50 49 43 38 33 25 14 10 11 11 17
48 45 55 76 78 76 80 88 93 98 98 98 93 48 32 30 32 30 27 24 24 20 17 15 16 15 16 21 28 33 39 46 48 46 41 37 32 24 12 11 11 12 15 24
60 58 60 72 82 80 88 91 98 99 99 90 44 32 32 34 30 26 25 24 21 18 16 15 13 15 19 26 31 38 45 47 44 41 36 32 20 11 10 10 12 17 24 31
76 72 84 85 75 78 92 100 100 98 80 42 34 35 32 29 27 26 25 22 20 17 14 12 15 19 23 28 36 43 44 42 40 36 30 16 9 8 8 12 20 28 34 35
88 86 91 86 82 85 99 99 98 66 39 36 35 30 29 27 27 25 23 21 18 14 13 14 16 18 26 38 47 47 43 40 36 27 11 6 5 6 10 19 31 36 36 37
91 98 98 88 94 95 100 92 56 38 38 31 29 30 29 28 26 25 22 18 14 13 11 13 18 28 43 48 45 42 39 36 23 8 6 5 6 10 21 33 36 35 38 42
96 96 94 94 95 99 82 49 39 35 30 31 32 32 30 28 27 22 17 15 10 9 12 19 32 44 47 44 42 39 36 20 8 10 10 10 13 25 34 36 37 39 42 43
98 94 94 98 92 64 42 40 32 31 33 33 33 32 30 26 21 16 13 9 9 14 24 38 45 46 45 43 40 36 16 9 14 14 14 20 31 36 39 44 47 46 43 38
98 97 98 86 60 43 40 33 33 34 34 35 34 30 25 21 17 11 8 10 16 27 38 43 45 45 44 40 35 15 10 16 16 18 28 34 37 40 47 50 46 41 34 30
98 98 77 56 43 38 34 35 35 37 39 36 31 26 22 15 9 8 10 15 26 36 43 46 47 45 42 35 14 11 17 19 23 33 36 38 43 47 52 45 39 34 33 34
97 81 61 46 37 36 36 37 41 42 39 32 27 23 15 8 8 9 14 25 37 45 47 47 46 43 35 14 12 20 21 24 32 36 38 45 49 54 49 42 38 39 35 31

GFSNGP_700_rhum_027.txt.gz
RH
92 90 98 97 98 99 100 98 95 71 71 31 43 66 65 58 46 49 51 50 52 56 60 60 59 57 52 51 52 53 55 58 62 68 73 80 76 73 77 80 58 35 24 22
94 94 100 99 100 100 88 83 82 72 58 58 76 84 63 53 46 46 45 47 54 58 57 54 52 51 51 53 54 56 59 63 68 72 78 79 75 78 79 54 34 24 22 21
93 99 98 98 89 94 96 89 96 96 80 81 62 59 52 46 43 44 47 50 56 62 62 57 54 54 56 59 62 63 66 68 72 77 80 76 76 71 46 31 24 24 22 22
98 100 98 94 100 99 98 97 95 97 99 82 76 53 46 46 40 40 43 48 55 61 62 62 64 67 70 69 71 70 70 73 78 79 77 74 58 38 28 25 24 22 25 26
99 100 75 71 82 94 98 99 100 97 91 80 60 52 52 53 57 54 46 53 58 60 64 68 70 72 73 72 72 72 74 79 78 74 66 46 32 26 24 24 23 28 28 26
90 100 80 71 62 69 89 78 86 80 82 72 64 57 54 58 58 58 54 56 59 61 63 67 71 73 76 76 75 77 80 75 68 51 35 28 23 22 23 25 29 28 27 26
89 86 68 65 62 60 58 59 58 59 59 61 57 60 60 59 59 60 58 59 60 63 69 73 75 77 78 80 78 74 69 55 38 29 23 21 22 24 26 30 30 27 26 29
98 93 72 64 59 52 47 47 44 46 52 53 57 59 61 61 61 62 62 63 64 67 71 75 77 77 74 71 68 57 41 30 24 20 20 22 26 27 30 29 28 26 27 30
77 68 61 69 59 54 50 48 36 42 50 56 59 61 62 63 63 64 64 66 70 74 76 76 73 72 69 59 45 31 24 18 19 20 23 26 28 31 32 29 28 30 32 33
79 68 67 66 66 59 52 50 51 39 43 51 60 64 65 63 64 65 68 70 71 73 73 74 70 62 46 31 23 17 19 19 20 24 26 30 30 29 28 31 33 34 33 33
72 65 64 67 66 64 61 57 55 43 44 45 55 61 66 66 68 71 72 71 73 74 72 62 44 30 21 18 19 19 19 22 25 28 30 29 29 30 34 37 36 35 36 33
73 72 68 67 66 67 66 63 50 49 50 48 52 57 58 65 68 69 71 72 69 56 41 30 20 19 21 21 19 21 24 28 28 27 27 29 32 36 41 39 40 40 34 29
75 79 76 73 72 73 70 67 56 55 58 55 55 66 66 70 69 70 67 60 45 28 21 22 24 23 21 21 23 25 26 24 24 27 29 30 30 30 31 39 40 34 29 20
79 77 76 74 74 68 60 63 61 63 66 68 67 66 74 77 76 66 46 29 23 24 26 25 23 22 22 23 22 20 21 24 26 27 26 26 31 37 39 35 31 29 20 11
74 85 87 87 79 64 59 63 68 71 73 74 78 84 85 84 76 49 28 25 27 28 26 24 23 23 21 18 18 20 22 22 24 23 27 34 38 37 35 32 30 19 9 9
84 84 78 67 72 73 72 71 76 77 81 86 92 94 93 82 45 27 28 29 29 26 24 23 21 18 17 17 18 17 18 18 21 28 35 36 34 33 32 28 15 8 8 9
60 58 54 60 63 67 68 73 82 88 90 95 96 92 86 42 29 29 31 29 26 24 23 21 18 16 16 15 14 13 16 22 29 34 35 35 33 32 24 9 6 5 8 12
45 42 44 60 66 68 70 78 87 96 98 97 95 92 42 30 31 32 29 26 25 23 21 18 18 15 13 13 13 17 23 30 36 36 34 33 31 19 6 6 5 6 10 20
55 52 46 52 69 85 87 89 94 98 98 92 93 49 31 33 33 29 27 26 24 22 20 18 15 13 12 13 16 23 33 37 35 34 34 30 13 7 8 8 7 10 21 30
62 65 60 68 77 88 92 97 100 98 98 95 51 33 35 32 29 27 26 25 23 21 18 14 13 11 13 16 27 36 37 35 35 33 29 11 8 12 11 10 15 26 31 32
68 74 72 79 84 76 98 100 99 96 98 50 34 36 31 28 28 27 26 24 22 18 15 12 10 12 19 30 35 34 35 36 34 27 9 9 14 13 12 20 30 32 31 34
80 82 86 90 80 84 95 99 99 90 44 36 35 30 30 30 29 28 26 23 18 15 10 10 14 24 31 33 34 36 36 34 26 8 10 15 15 18 28 32 32 34 39 37
91 96 96 95 92 96 99 99 88 41 37 33 31 32 32 31 30 27 23 19 13 10 12 17 24 29 32 35 36 36 35 26 9 10 16 18 23 30 31 32 40 42 38 36
93 98 99 90 92 99 100 81 43 38 31 32 33 33 33 31 26 23 18 11 10 13 16 22 28 33 36 37 37 35 26 9 11 18 20 24 30 31 33 43 44 36 33 30
100 95 99 96 99 90 59 40 37 32 34 35 36 36 32 28 23 16 9 11 12 15 20 26 32 35 38 37 36 25 9 12 21 22 25 31 31 33 45 46 36 34 31 31
96 96 94 98 80 52 41 36 34 36 37 40 39 34 28 23 14 10 11 11 13 16 23 31 36 38 38 38 24 11 14 23 24 26 32 32 35 43 49 41 38 36 37 32
98 98 99 76 49 41 36 37 37 40 43 42 36 30 24 14 10 10 10 11 14 22 30 34 38 39 39 23 11 18 25 23 24 31 32 34 43 50 48 40 39 38 33 37

GFSNGP_700_rhum_030.txt.gz
RH
87 94 98 98 98 97 97 85 98 78 89 60 53 59 55 55 71 62 72 61 53 54 58 66 70 68 67 66 57 53 56 59 60 62 64 67 71 75 79 80 77 75 55 31
95 96 98 98 99 98 97 98 97 100 85 65 65 79 83 86 73 74 66 60 58 62 68 69 70 70 69 66 56 58 61 62 63 66 68 72 74 77 81 80 79 51 31 24
90 96 99 99 99 99 100 100 96 95 66 95 96 100 89 69 62 64 58 54 59 64 68 71 70 67 66 61 60 62 64 66 69 71 73 74 77 82 81 77 44 30 25 22
95 98 98 97 98 99 99 90 89 85 95 99 99 85 67 60 58 58 60 60 64 69 72 69 64 61 63 65 67 69 71 72 72 74 76 79 83 80 66 39 30 25 23 23
99 99 90 80 74 97 100 94 84 72 93 88 81 57 53 55 58 62 65 69 75 80 81 75 68 67 69 72 75 78 78 78 78 79 84 84 76 50 33 29 24 23 25 28
98 98 97 79 71 75 74 80 81 79 84 75 66 52 57 56 53 50 55 70 77 76 71 72 72 75 80 83 83 82 82 81 84 86 76 58 38 31 27 24 23 27 29 25
100 93 74 72 70 65 58 64 62 69 82 82 79 79 80 75 68 54 59 64 65 68 68 69 74 81 83 85 86 84 86 86 76 58 41 31 28 24 23 25 28 27 26 25
92 97 76 72 64 54 54 52 48 50 62 71 79 82 67 59 60 61 58 59 60 63 66 71 77 83 85 86 86 81 74 60 44 32 27 24 24 24 26 27 27 26 24 24
85 74 68 69 60 55 51 40 45 51 57 64 68 66 63 61 62 63 63 65 66 70 75 79 82 83 80 77 72 60 46 31 26 22 24 23 25 26 27 27 25 21 21 25
85 74 68 68 67 57 51 54 44 52 59 60 65 64 64 64 64 66 67 68 73 76 78 78 76 76 70 60 44 30 24 21 23 22 23 26 27 27 26 23 21 24 25 26
74 78 71 70 69 66 60 54 48 43 50 59 65 65 66 65 67 69 71 73 74 76 76 74 70 57 39 28 20 20 22 22 22 24 26 26 25 24 23 23 25 26 28 27
77 77 70 67 66 67 65 60 51 50 48 49 62 66 67 70 72 74 73 73 74 73 66 50 36 25 19 20 22 22 21 23 26 25 23 23 23 24 25 29 33 32 30 28
74 79 80 74 74 72 70 67 58 52 55 54 58 70 71 70 70 72 71 67 61 54 38 23 21 22 24 23 22 23 24 23 22 22 21 20 19 22 24 32 31 29 28 21
75 79 76 74 71 73 67 64 60 56 59 61 65 66 69 69 71 72 68 55 36 25 23 25 26 24 23 23 23 20 20 20 19 18 17 19 21 24 26 25 24 25 14 6
83 90 78 78 78 81 71 68 64 65 66 67 69 74 75 78 78 73 53 30 25 27 28 26 24 24 22 19 18 18 17 15 14 15 17 20 25 28 28 28 24 10 6 7
71 94 91 85 74 74 70 63 71 73 75 77 80 83 86 86 77 47 28 28 29 28 26 24 22 20 18 18 16 13 12 12 14 18 22 27 28 28 28 22 7 8 10 8
84 86 84 70 70 73 73 74 80 82 82 88 91 89 91 70 35 28 30 30 27 25 24 22 20 18 17 14 13 11 12 14 19 26 29 29 29 27 19 7 10 12 9 10
56 50 52 62 58 63 68 74 79 89 92 95 93 89 77 32 29 32 31 27 26 24 22 20 20 17 14 12 11 13 16 23 28 29 30 29 27 16 6 11 13 13 15 24
45 45 42 45 58 75 76 75 85 96 99 92 90 88 39 30 33 31 27 26 25 23 22 20 16 14 11 12 15 20 25 28 30 31 29 27 14 7 11 14 16 21 25 25
60 57 54 53 65 82 87 92 96 98 99 97 92 46 32 35 30 28 27 26 24 23 20 17 12 11 13 16 20 24 28 30 30 28 27 13 7 11 16 18 23 25 25 30
64 74 73 67 72 85 98 100 100 99 97 97 54 33 35 29 29 29 28 27 24 20 16 11 12 14 16 20 24 28 30 30 29 27 13 7 11 18 19 22 24 24 30 31
71 82 80 79 87 92 98 98 97 97 99 65 34 35 30 30 30 30 29 25 20 15 12 14 14 15 19 24 27 28 30 30 27 13 8 13 19 19 24 26 26 34 32 26
79 90 91 94 97 95 86 94 96 95 56 36 34 31 32 32 32 30 26 21 14 13 15 14 15 18 22 25 28 30 32 28 13 8 15 19 19 25 26 28 37 34 28 26
88 94 98 99 98 99 98 96 93 70 37 33 32 33 34 35 32 27 22 15 15 15 13 14 16 20 24 28 30 31 28 14 9 17 20 18 26 27 31 42 39 33 29 25
99 99 98 96 87 98 99 99 66 38 33 34 35 38 38 34 28 24 16 16 14 14 13 15 19 23 27 29 31 28 14 10 17 18 17 27 29 30 42 44 35 31 30 30
91 92 96 96 98 99 84 44 38 34 35 37 40 41 36 30 24 17 16 15 14 12 14 18 22 25 27 30 27 13 11 17 16 17 27 31 31 38 46 40 35 34 31 32
96 94 97 99 98 78 40 39 35 36 38 43 44 40 32 26 19 16 16 14 12 13 15 18 22 25 29 26 11 11 17 15 17 28 33 33 36 43 46 39 35 32 32 56

GFSNGP_700_rhum_033.txt.gz
RH
83 85 94 98 98 99 97 87 98 78 94 56 66 72 66 58 65 61 72 69 46 49 52 58 68 70 71 70 71 69 68 68 61 61 62 65 67 70 72 74 78 82 84 84
91 86 97 98 97 99 98 97 98 98 90 78 84 78 72 70 94 87 89 72 60 58 62 67 74 73 74 73 68 67 66 66 66 66 66 68 71 74 76 78 83 87 84 64
94 88 91 98 99 100 100 99 90 98 71 82 82 87 96 93 88 88 83 65 64 65 69 76 78 77 73 72 71 68 67 69 68 68 70 72 75 78 80 84 88 85 62 31
97 96 98 97 99 100 100 98 93 88 94 96 100 93 77 74 76 74 72 69 69 71 75 79 79 80 81 79 73 70 71 72 70 70 72 77 81 84 89 88 86 46 27 24
99 99 80 85 98 98 100 100 94 98 100 100 89 77 69 68 68 75 71 72 74 78 84 83 85 82 81 78 73 73 72 70 71 76 82 86 88 92 87 64 36 25 24 25
100 99 97 76 72 77 80 97 100 100 100 93 83 78 65 64 67 69 74 78 80 85 89 88 79 75 75 76 76 76 77 82 86 87 87 92 88 68 44 28 25 25 26 24
99 98 71 75 65 56 57 78 98 98 100 96 87 74 61 59 59 65 69 70 74 83 89 85 83 81 86 92 90 87 87 88 88 93 86 66 46 31 25 24 25 26 21 18
91 92 84 72 61 61 60 53 56 60 99 90 90 89 87 67 59 63 67 64 73 78 80 84 90 94 94 90 88 89 91 90 81 63 47 32 25 24 25 26 24 19 17 15
89 71 69 70 64 58 52 49 56 50 72 83 77 76 71 64 63 63 66 67 71 79 79 82 85 89 93 93 90 85 75 62 46 32 24 24 24 26 26 21 19 14 13 17
86 79 72 67 69 58 58 49 52 58 66 69 69 65 68 73 67 68 69 70 72 74 80 82 84 87 83 80 72 60 43 31 23 24 24 26 26 22 20 16 13 15 18 19
76 77 70 68 68 64 58 49 46 56 62 65 69 67 67 67 70 72 73 74 79 83 86 84 80 76 69 55 39 28 22 23 24 25 26 23 20 17 14 14 16 18 20 18
79 78 76 68 68 67 66 62 62 52 56 63 68 68 69 71 74 75 76 78 78 78 79 73 63 47 34 24 22 24 23 24 25 22 19 17 14 14 16 19 23 23 21 19
75 78 80 75 73 75 73 75 66 67 58 58 60 70 73 72 73 73 74 74 75 66 53 41 26 20 22 24 24 24 24 21 18 17 14 12 13 15 19 26 24 22 19 10
74 78 80 79 76 77 80 72 91 65 76 67 68 69 72 71 68 70 68 61 49 32 21 21 24 25 24 24 23 20 18 17 15 12 12 14 16 19 21 18 17 17 8 7
83 85 82 85 79 81 84 84 66 65 65 67 69 71 73 76 75 69 52 31 22 24 26 27 26 25 23 20 18 18 15 13 12 13 14 17 20 21 19 19 18 8 7 12
77 89 93 97 97 98 98 97 93 81 72 74 75 79 82 82 77 58 33 26 28 29 27 26 24 22 20 19 16 14 12 12 13 15 19 21 20 20 21 17 7 8 12 13
68 89 95 82 78 73 73 76 79 78 78 83 86 87 91 85 59 31 29 31 29 27 25 23 22 21 19 16 13 12 13 13 16 19 20 20 20 21 16 7 8 14 15 16
80 80 83 72 67 72 71 76 82 86 88 90 89 84 89 49 30 30 32 29 26 25 24 24 22 20 16 14 14 14 15 16 18 19 20 20 22 15 8 10 14 15 17 18
68 66 59 61 68 77 76 78 84 92 94 93 93 87 58 30 32 33 28 27 26 26 25 23 20 16 16 16 15 15 16 17 18 19 20 22 14 9 12 16 15 17 18 18
54 58 52 53 57 75 81 84 89 95 96 96 88 77 32 33 33 28 28 28 27 26 23 19 16 17 16 15 14 15 17 18 19 21 23 14 10 13 16 15 18 19 22 25
56 61 59 55 60 73 90 92 96 98 96 98 92 41 34 33 29 30 29 29 27 23 18 17 19 16 15 14 16 17 18 19 22 23 14 10 13 15 14 18 20 23 27 24
55 72 73 70 74 82 93 97 97 96 92 91 61 34 33 30 31 31 31 27 23 18 18 19 17 14 14 15 16 17 19 23 22 13 10 12 14 13 20 21 24 30 26 25
46 70 87 88 86 93 96 97 94 98 93 70 35 33 31 32 34 33 28 24 19 20 19 17 14 14 15 16 17 20 23 22 12 9 13 13 13 21 23 26 33 29 26 26
50 79 93 95 98 100 96 83 94 99 90 37 34 32 33 37 35 30 25 20 20 19 18 14 14 15 16 17 19 22 20 11 10 13 13 14 23 26 26 38 38 32 28 29
75 97 98 99 98 98 98 100 97 94 46 35 33 35 39 39 33 27 21 21 20 18 15 14 14 15 16 18 20 18 10 9 12 13 17 25 29 28 34 42 36 31 31 30
94 99 98 99 99 98 98 98 97 47 35 34 36 41 42 36 29 24 21 20 19 16 14 14 14 14 16 19 15 9 9 12 13 20 27 31 32 30 42 42 35 31 30 53
99 100 99 97 100 100 99 90 42 36 34 37 42 45 41 32 27 22 21 20 17 15 14 14 14 15 18 14 9 9 12 13 19 26 32 32 31 38 44 40 33 29 49 76

GFSNGP_700_rhum_036.txt.gz
RH
67 72 82 96 100 98 98 97 98 72 89 80 97 98 99 88 69 64 58 56 74 43 26 41 54 53 59 70 75 76 73 70 79 71 74 66 68 68 70 73 76 77 78 80
78 82 99 99 93 99 99 100 98 100 97 86 92 100 81 84 77 85 74 81 73 40 35 60 66 64 76 79 80 80 90 100 97 99 80 72 73 74 76 77 78 80 82 88
94 89 85 98 99 99 99 100 100 99 81 96 97 96 99 100 100 100 98 86 66 40 25 29 72 80 82 87 90 97 100 100 100 93 76 77 77 78 80 81 82 86 93 92
96 90 93 93 98 100 100 100 84 80 91 96 98 99 98 91 96 100 92 76 72 72 70 76 89 95 99 100 100 100 100 98 84 79 79 79 81 84 85 88 92 97 93 43
96 99 85 87 95 87 99 100 90 98 100 100 96 90 89 94 98 91 83 80 83 87 98 96 97 96 91 87 88 83 83 81 80 80 81 84 88 93 95 98 96 61 28 23
98 98 81 66 70 62 94 99 99 100 100 91 86 99 86 91 98 91 85 85 86 90 92 87 85 86 87 87 83 81 80 79 81 84 90 98 99 100 98 73 36 24 22 23
98 98 84 69 75 65 65 74 98 96 100 96 90 82 81 85 87 94 94 85 83 87 89 90 89 89 88 83 79 79 82 88 99 100 100 100 97 71 39 25 23 23 21 16
99 98 87 69 66 68 64 68 72 95 99 100 84 83 90 92 91 90 88 87 93 92 88 86 89 87 83 84 92 99 100 100 100 99 94 68 40 26 24 23 23 18 15 12
90 77 76 71 72 61 56 64 61 77 89 96 97 96 90 82 88 85 92 85 85 92 88 88 90 99 100 100 100 100 99 100 94 64 40 26 24 24 24 19 16 13 12 13
86 78 80 72 70 62 51 60 62 60 79 81 82 78 77 82 78 78 78 82 86 90 91 90 96 99 100 100 100 100 92 61 37 25 24 24 24 20 17 14 12 13 14 15
78 77 76 69 70 66 57 54 60 69 73 74 66 70 76 76 75 75 78 82 88 95 98 99 98 98 99 98 83 56 35 24 24 24 24 21 18 16 13 13 14 15 14 13
88 81 79 70 69 70 66 67 64 65 68 67 68 68 71 75 79 81 83 88 91 98 100 96 89 84 72 50 30 23 24 24 24 22 19 17 14 13 14 14 15 15 14 14
78 81 82 79 74 75 81 75 69 76 68 64 64 71 72 76 78 79 84 86 88 88 83 72 54 40 23 23 25 25 24 22 19 18 15 13 13 13 16 17 16 16 15 11
77 77 82 82 80 80 80 70 77 73 70 71 73 75 78 77 76 78 79 76 71 59 47 30 22 24 26 25 24 21 19 18 16 14 14 14 14 16 16 14 14 14 10 7
75 75 81 84 81 88 92 82 84 79 66 68 69 72 71 71 70 69 65 56 39 24 24 26 27 26 24 22 20 19 17 15 14 15 14 15 16 15 14 14 14 11 8 9
74 83 87 84 95 94 87 90 81 92 78 71 69 72 74 74 71 60 42 28 26 28 28 27 25 23 22 21 19 16 14 16 14 14 15 16 14 14 15 14 11 8 10 10
71 80 87 93 84 89 91 92 90 85 77 77 79 83 85 79 61 38 30 30 30 28 26 24 24 23 22 18 15 16 16 14 14 15 15 14 15 15 14 10 8 9 11 12
73 89 98 99 95 83 82 80 78 82 82 86 89 83 85 66 34 30 31 31 28 26 25 25 24 22 18 16 17 16 14 14 16 14 13 14 15 13 9 8 10 11 13 15
74 71 84 79 77 80 78 77 81 86 89 92 91 83 79 39 31 32 31 27 27 27 26 25 21 17 18 18 16 14 15 15 13 12 14 15 12 8 9 11 12 15 16 18
71 71 66 64 67 75 79 82 86 90 93 94 81 85 46 31 33 30 28 28 28 28 25 21 18 19 18 16 15 15 14 12 12 14 14 10 8 10 12 12 16 17 20 22
55 59 61 57 60 63 81 87 88 91 94 92 88 75 32 34 30 29 30 30 30 25 21 19 20 18 16 15 15 13 11 11 13 12 9 8 10 12 14 19 20 21 26 23
61 64 64 62 60 67 80 91 95 97 100 94 89 55 34 32 30 31 33 31 26 21 20 20 19 16 15 14 13 11 11 12 11 8 8 11 12 16 22 23 22 30 27 23
55 70 80 77 71 76 86 93 98 99 97 95 78 35 33 30 32 35 33 27 21 20 21 19 16 15 14 13 12 11 11 10 8 8 11 13 18 23 26 24 30 32 26 25
43 64 87 88 84 92 96 96 100 98 96 96 43 35 31 32 36 35 29 23 21 21 20 16 15 14 13 12 11 11 10 8 8 11 14 19 24 26 27 30 38 32 28 29
37 66 97 99 97 97 100 99 97 94 98 89 37 32 33 38 39 32 26 22 22 20 17 15 14 13 12 11 11 9 8 9 11 14 18 18 22 27 30 40 38 32 31 36
47 76 98 100 100 99 98 98 99 99 97 47 33 34 39 41 36 28 23 22 22 18 16 15 14 12 11 10 9 8 9 11 14 16 13 14 21 31 39 40 35 31 37 68
58 99 99 98 99 99 98 97 98 98 50 34 34 38 43 41 32 26 23 23 21 17 16 15 13 11 11 10 8 8 10 13 15 13 18 25 31 36 37 34 30 38 67 77

GFSNGP_700_rhum_039.txt.gz
RH
94 91 88 89 96 93 99 98 98 88 99 89 100 98 94 84 88 91 94 80 43 58 68 48 40 61 62 61 72 69 73 73 73 71 64 88 100 98 78 70 68 70 75 77
97 72 94 98 97 99 99 98 98 100 92 89 86 76 92 98 98 96 95 48 64 80 72 40 37 51 54 68 70 71 76 80 77 89 99 100 94 96 75 74 89 83 80 84
97 67 86 96 98 97 98 100 100 99 96 94 96 100 98 99 100 100 91 77 94 91 61 35 35 38 60 73 72 81 86 99 96 100 100 99 94 85 95 96 83 85 90 95
96 78 89 85 88 84 88 100 99 99 97 91 100 99 99 100 99 98 91 96 99 78 50 35 64 74 84 93 99 97 100 97 100 100 100 99 98 96 89 87 91 96 96 98
93 87 75 76 85 82 76 98 100 99 99 99 99 100 99 100 100 100 99 99 93 69 46 70 91 98 100 100 100 99 100 100 100 100 99 92 87 86 92 95 96 98 96 42
93 96 72 66 74 71 67 85 96 100 100 96 98 100 99 99 100 100 98 96 87 73 81 100 98 98 100 100 100 100 100 99 93 86 86 87 96 94 97 98 97 55 25 24
98 98 87 71 75 73 68 73 77 99 99 93 90 96 100 99 99 100 100 100 100 100 100 100 100 100 100 100 99 94 90 87 86 90 93 96 100 98 96 60 26 24 24 20
99 98 92 74 72 79 75 66 74 96 99 98 95 93 96 98 99 99 95 94 99 97 96 95 98 98 94 90 88 90 94 95 95 99 99 97 93 54 25 24 24 22 17 14
98 94 87 82 73 71 55 67 58 85 93 98 98 99 99 99 99 99 99 96 93 94 90 88 93 97 98 96 94 97 99 99 98 96 84 47 24 24 24 23 18 15 13 13
95 91 85 76 70 68 55 60 59 78 87 91 99 100 98 100 96 86 89 92 93 95 98 98 97 98 99 100 99 98 96 93 72 39 24 24 24 23 19 16 14 14 13 14
74 76 82 77 72 68 62 68 63 70 79 81 80 93 96 92 92 89 90 91 94 100 100 100 100 100 100 100 98 89 61 34 24 25 25 23 19 17 14 14 14 14 14 12
81 88 83 82 78 73 72 76 73 68 74 72 67 75 79 81 86 88 90 89 90 90 95 100 99 99 91 72 47 29 24 26 25 23 20 18 15 15 15 14 15 14 11 10
82 70 80 80 83 78 79 81 71 76 87 75 82 78 78 84 84 88 91 97 100 100 100 100 88 62 41 25 25 26 26 24 20 19 16 15 16 14 14 14 12 10 10 11
79 82 81 78 79 82 80 77 71 71 76 72 75 86 86 89 87 91 96 96 95 93 78 59 36 24 26 26 26 24 21 20 18 16 16 15 14 15 13 10 10 12 10 8
78 78 75 74 82 84 85 90 86 87 84 76 77 82 83 84 82 80 81 74 63 50 29 23 26 27 26 24 22 21 20 17 17 17 15 15 14 11 10 11 11 9 7 8
70 69 70 77 86 85 94 96 97 86 89 76 74 72 71 72 70 68 61 47 28 24 28 28 27 25 23 22 21 19 17 18 16 15 15 12 10 10 11 10 7 6 8 9
77 77 79 86 91 91 95 95 96 95 92 76 72 75 76 76 70 56 38 29 29 29 28 26 24 24 24 22 18 19 18 16 15 14 11 10 10 10 9 7 7 9 10 13
76 75 86 100 94 94 94 86 90 84 80 78 81 84 79 79 53 35 30 30 29 27 25 25 26 24 21 19 20 18 16 15 13 11 9 10 9 8 7 8 9 11 14 16
73 85 87 82 95 97 95 97 80 80 81 85 88 81 77 62 39 31 31 30 27 27 27 27 24 20 20 20 18 16 14 12 10 9 9 9 7 7 8 10 12 16 17 17
65 72 77 72 75 75 78 82 82 83 86 92 90 76 77 40 32 32 30 28 28 28 28 24 20 21 20 17 16 14 12 10 9 9 8 7 7 9 11 14 17 19 19 23
59 70 75 69 66 69 68 81 83 85 90 92 89 84 53 31 34 31 28 29 30 30 25 20 21 20 17 15 13 12 10 9 9 8 7 7 10 13 16 19 22 22 26 27
57 57 62 67 65 69 71 76 86 90 94 97 94 89 53 33 32 29 30 33 31 26 21 21 20 17 15 13 12 10 9 9 8 7 7 10 13 14 17 24 27 31 33 26
52 60 67 70 70 69 77 81 88 93 97 100 96 85 41 34 30 31 34 34 28 22 22 21 17 15 14 12 11 10 9 8 7 7 10 12 11 11 17 25 32 38 30 28
32 44 58 72 80 79 84 89 91 95 96 98 95 64 35 31 31 35 36 30 24 22 22 18 16 14 13 11 10 10 8 7 8 10 12 11 16 21 26 32 35 32 29 30
31 33 50 75 88 87 88 96 98 98 98 97 94 59 36 31 33 36 35 28 22 22 20 17 15 14 12 11 10 9 8 8 9 12 11 15 22 28 30 31 29 27 29 51
32 34 46 72 97 94 94 98 97 98 98 97 95 48 33 33 38 38 32 25 23 22 19 16 16 13 12 11 10 8 8 9 12 12 12 17 23 26 26 26 25 27 53 73
38 39 63 92 99 99 100 100 100 98 97 98 72 36 33 37 40 36 30 24 23 22 18 17 15 13 12 10 9 8 8 11 12 11 14 18 22 23 23 23 30 59 72 73

GFSNGP_700_rhum_042.txt.gz
RH
93 69 70 77 89 93 98 94 99 95 99 87 89 92 89 98 95 86 84 87 92 80 53 44 59 99 82 58 61 66 67 80 81 81 86 80 78 71 92 100 100 100 99 76
67 65 79 86 77 91 93 99 100 100 96 100 99 100 99 92 92 79 76 87 97 86 66 66 83 83 44 68 77 73 81 83 82 81 79 90 96 100 93 100 100 96 94 95
89 87 83 92 82 79 83 85 99 99 98 100 100 100 99 98 98 98 94 95 93 82 57 87 81 46 47 67 78 81 86 88 91 97 98 95 99 100 100 99 98 95 99 96
96 81 95 76 72 82 86 83 98 99 99 100 100 99 99 98 98 99 98 100 96 88 94 92 72 49 51 62 92 94 96 100 100 100 100 100 100 100 98 98 99 97 95 98
95 90 64 77 81 75 82 71 78 98 99 99 99 99 100 99 98 100 96 98 98 100 98 72 52 53 57 82 100 100 100 100 100 100 100 100 100 98 98 91 89 95 97 97
99 96 84 67 71 75 76 85 84 96 100 89 92 99 100 100 100 100 100 100 100 90 64 73 80 95 100 100 95 100 100 100 99 100 99 98 97 88 91 96 97 97 88 28
99 96 74 57 77 77 80 82 84 94 97 97 93 97 99 100 100 99 98 99 100 100 100 100 100 100 99 100 100 99 99 98 99 96 91 95 94 95 97 98 77 26 24 23
97 99 91 90 85 85 76 75 75 91 97 99 96 100 100 99 99 99 100 100 99 98 100 99 99 99 98 99 99 98 92 93 96 100 99 97 99 97 56 26 25 23 18 16
79 70 78 94 87 73 70 68 63 84 99 93 98 99 100 100 100 100 100 100 100 100 99 99 98 97 97 95 97 98 98 100 100 100 100 84 43 26 25 23 19 17 16 15
90 88 93 89 81 72 62 66 63 81 88 94 100 98 99 100 98 97 99 100 100 100 100 100 100 100 100 100 100 100 100 98 94 67 36 24 25 23 19 18 16 16 14 14
78 69 88 82 81 73 69 74 71 70 84 92 95 93 88 93 100 100 100 100 99 100 100 100 99 100 100 100 99 93 84 53 29 25 25 23 20 19 17 16 15 15 13 10
77 87 87 79 82 76 77 81 76 70 74 79 74 78 86 87 95 97 100 100 100 100 100 100 100 100 93 83 63 40 25 25 26 23 20 20 17 17 16 15 14 11 9 8
74 72 70 72 78 81 79 81 77 75 79 82 79 81 85 90 95 98 97 98 100 100 100 100 84 72 52 31 24 27 26 24 21 20 18 18 17 16 15 12 9 8 7 6
87 84 76 80 79 79 82 79 78 72 74 80 80 87 90 93 96 96 99 99 100 100 100 89 58 32 25 27 26 24 22 22 19 18 18 16 15 14 10 9 8 7 6 6
71 80 79 79 77 77 84 79 87 91 84 85 81 83 90 94 95 94 93 91 89 80 59 36 25 27 27 25 22 22 21 19 19 18 16 15 12 9 8 8 7 6 6 7
84 77 70 71 75 77 86 86 95 98 78 75 82 80 78 79 81 79 76 69 58 34 25 27 28 26 24 24 23 20 19 19 17 16 13 10 9 8 7 7 6 6 8 10
84 82 80 80 89 92 98 100 96 98 98 79 74 70 72 73 71 66 55 41 29 28 29 28 25 25 26 23 20 20 19 17 15 12 10 8 8 7 6 6 7 9 12 14
88 86 83 91 97 98 96 96 99 97 93 81 76 80 81 78 64 46 34 29 30 30 27 25 26 26 23 20 20 18 16 14 11 9 9 8 7 6 6 8 11 12 16 19
94 94 97 100 100 99 99 99 95 86 79 79 85 86 77 71 55 38 31 31 29 27 27 28 27 23 20 21 18 16 13 11 10 9 8 7 6 6 9 10 11 14 21 22
96 94 96 98 92 86 90 90 98 88 81 84 91 88 75 66 48 34 32 29 28 28 29 28 23 21 21 18 15 13 11 10 9 8 7 6 7 9 9 10 11 16 24 30
68 84 83 81 72 70 73 80 85 86 82 87 92 85 78 50 32 33 31 28 29 31 30 24 21 21 18 15 13 11 11 10 8 7 6 7 9 9 12 16 17 21 31 32
63 61 68 76 78 72 72 76 77 82 85 90 95 93 85 47 33 33 29 30 31 32 26 22 22 19 16 14 12 11 10 9 8 6 6 8 8 11 17 21 25 28 28 25
54 66 69 72 75 75 72 76 81 84 87 93 97 97 90 50 34 30 30 32 34 30 23 22 20 16 15 13 12 11 10 8 7 6 8 8 9 14 20 23 24 23 23 28
34 33 46 67 81 82 78 80 84 88 90 94 95 98 93 48 35 31 32 36 33 26 22 22 18 16 15 13 13 12 10 8 6 7 8 8 12 17 19 19 20 19 28 55
38 36 33 38 64 89 91 90 95 94 95 96 97 98 96 46 35 31 34 37 31 24 23 21 18 16 15 14 13 12 9 7 7 8 8 10 14 18 18 18 20 27 52 64
43 39 36 38 58 90 99 99 99 98 98 98 98 97 86 41 33 33 38 36 28 24 24 21 18 17 16 15 14 11 8 7 7 8 8 11 16 18 18 20 29 51 61 61
49 46 44 45 66 100 100 100 100 99 99 98 97 97 77 37 33 35 38 33 26 25 25 22 19 18 16 16 14 10 8 7 8 8 9 13 18 20 20 30 52 58 60 58

GFSNGP_700_rhum_045.txt.gz
RH
79 73 77 73 69 79 94 81 98 69 85 89 99 97 99 98 98 98 76 82 79 75 77 72 69 49 46 88 98 99 99 96 63 73 90 96 94 89 89 99 100 100 100 100
65 74 78 83 76 73 94 94 100 93 98 100 100 95 99 100 99 100 92 96 87 86 95 83 76 57 62 99 100 100 98 97 82 97 100 100 100 97 100 100 100 99 100 99
76 81 86 84 72 75 80 85 94 96 84 95 94 100 99 98 97 99 94 98 100 93 98 100 83 99 100 100 100 100 100 87 98 100 100 100 100 100 100 100 100 100 99 99
81 80 95 83 66 79 82 83 81 84 86 98 100 99 99 98 94 99 91 96 99 98 99 99 100 100 100 100 100 100 96 98 100 100 100 100 100 100 100 99 100 99 97 94
99 95 71 80 77 78 88 74 75 92 87 100 99 99 100 98 99 99 97 98 95 97 99 99 100 100 99 85 100 100 100 100 100 100 100 100 100 100 100 98 99 97 94 97
99 97 90 78 64 80 83 72 84 88 99 100 100 99 99 99 100 100 100 100 100 100 100 100 95 82 71 78 100 99 100 99 100 100 99 99 99 99 98 97 94 98 97 88
97 96 74 76 82 86 85 79 78 79 100 100 98 98 99 100 100 99 100 90 84 71 80 87 79 78 91 100 99 99 98 100 98 98 98 98 99 97 88 94 95 60 28 25
99 98 88 89 85 93 78 69 75 77 98 100 99 100 98 97 92 99 100 100 94 95 99 99 99 99 99 99 97 98 98 99 99 100 98 94 93 95 80 37 26 25 20 17
83 73 83 85 87 80 73 74 67 80 96 99 100 96 100 99 99 98 93 94 97 99 99 98 96 98 98 99 99 98 98 97 97 97 97 77 42 29 27 24 19 17 16 16
86 83 86 82 85 79 74 80 79 71 85 92 95 99 99 100 100 100 99 98 98 99 99 98 97 96 98 97 98 95 93 98 88 48 31 29 27 23 20 18 17 16 15 14
87 79 78 84 87 81 74 77 81 73 75 83 81 88 95 100 98 98 98 100 99 99 98 99 99 99 99 100 99 99 78 43 31 29 26 22 20 19 18 17 16 14 10 8
90 82 74 79 81 82 80 78 81 83 77 82 76 76 89 93 100 100 99 100 98 99 99 100 100 100 98 87 63 44 32 29 26 23 21 19 19 18 16 15 12 8 7 7
82 80 73 73 72 73 78 78 78 78 79 84 80 79 90 93 96 100 100 100 98 99 100 100 100 81 58 37 30 29 27 23 22 21 19 19 17 16 12 9 8 7 7 6
87 81 80 82 83 82 78 80 79 77 76 81 90 94 99 99 98 96 96 100 100 100 100 98 65 39 29 29 27 24 23 23 20 20 18 16 14 10 8 8 7 6 6 5
76 76 77 85 86 84 78 82 81 85 94 92 90 96 97 95 96 98 100 100 99 99 86 51 32 29 28 26 24 24 22 20 19 17 15 12 9 9 8 7 6 5 6 7
96 90 86 81 74 76 79 84 88 89 97 84 84 91 90 85 91 96 95 90 82 64 36 27 29 28 25 25 25 21 20 19 16 13 10 9 9 8 7 5 5 5 7 8
97 92 92 92 85 86 92 91 91 98 98 98 82 79 73 72 74 76 73 62 46 31 28 30 28 25 26 25 21 21 18 15 12 10 10 9 8 6 5 5 6 7 9 11
84 93 95 92 94 98 98 100 98 99 99 96 95 80 78 77 72 62 49 33 29 30 30 27 26 27 25 21 21 18 15 12 10 10 9 8 6 5 5 5 7 12 13 13
74 93 100 99 98 98 97 96 98 98 85 78 79 85 81 73 68 52 37 32 31 30 27 27 28 26 21 21 18 15 12 11 11 10 8 6 5 5 5 7 12 15 16 17
98 97 99 99 99 99 98 97 99 98 83 80 84 88 81 71 59 44 34 32 31 28 28 29 28 22 22 19 15 13 12 12 11 9 7 5 5 5 6 12 13 14 14 14
94 97 91 97 98 95 95 87 86 90 91 82 89 92 80 67 47 35 33 31 28 28 31 30 23 22 20 16 14 13 12 12 11 8 6 5 5 6 10 12 10 9 11 16
76 75 86 92 92 92 84 78 87 90 93 83 88 96 89 78 44 33 33 30 29 31 32 27 22 22 18 15 14 13 14 13 10 7 6 5 6 7 12 11 8 8 18 40
45 65 76 76 77 85 85 82 84 89 91 84 88 98 97 95 63 34 32 30 31 34 32 24 23 20 17 16 14 14 15 12 9 6 5 6 6 8 13 11 10 16 37 50
44 41 38 46 65 76 82 84 85 90 94 86 88 95 98 97 87 42 32 30 33 34 29 24 23 20 17 16 15 16 15 11 8 6 6 6 7 9 14 15 17 30 47 47
48 44 41 38 38 52 74 88 89 95 97 94 92 92 96 97 95 48 32 31 35 35 27 24 23 20 18 17 17 17 14 10 8 6 6 7 8 12 16 18 22 39 50 46
59 52 47 43 42 46 66 89 97 97 99 99 97 96 97 97 97 46 32 32 36 34 26 24 24 21 19 18 18 17 12 9 7 6 7 8 10 15 18 21 32 53 52 49
67 68 60 50 50 49 57 97 100 93 97 99 100 97 97 98 88 37 33 35 36 29 25 36 36 23 20 18 18 16 11 8 7 7 8 9 14 18 22 32 52 58 56 50

GFSNGP_700_rhum_051.txt.gz
RH
79 87 90 83 75 74 79 72 84 60 68 76 92 98 92 98 92 86 87 84 81 80 82 79 87 90 87 83 79 69 66 62 68 78 74 74 67 65 87 89 81 74 74 100
74 72 75 77 78 80 77 80 83 70 78 90 92 100 99 91 93 86 85 88 82 93 90 88 81 70 72 69 63 57 54 67 77 85 74 73 92 66 85 88 73 70 100 100
74 93 87 75 63 54 51 58 72 83 87 99 97 97 98 87 93 94 91 94 81 100 99 100 100 100 96 75 86 71 82 86 99 100 94 100 100 84 96 74 84 96 99 100
83 82 95 78 74 73 78 79 90 83 95 95 98 97 98 89 93 90 98 95 92 92 93 96 100 100 100 88 98 97 98 99 99 99 99 100 98 100 100 100 100 99 99 100
96 100 70 63 88 75 78 73 75 88 90 100 98 98 98 87 96 99 99 98 97 99 99 100 100 100 100 100 100 96 95 96 98 100 100 99 99 98 100 100 98 99 98 98
93 95 90 87 83 78 82 72 79 82 93 98 98 98 99 88 98 100 79 95 100 100 100 100 99 98 89 84 85 100 100 99 100 100 98 91 95 97 99 98 98 98 98 98
86 92 70 67 86 83 82 84 86 80 93 97 99 98 99 89 87 94 98 100 100 98 100 97 90 82 87 81 96 100 93 100 100 100 99 99 99 98 97 96 97 96 62 27
88 96 83 69 87 93 91 86 90 82 93 97 99 98 100 84 82 85 85 91 98 99 100 97 98 85 88 99 99 100 98 98 99 98 98 97 97 97 87 43 27 23 21 20
84 74 78 96 96 98 96 84 86 90 86 96 100 95 99 100 89 84 88 93 90 88 93 99 99 93 98 97 96 98 98 96 96 97 95 63 33 26 23 22 21 19 17 13
95 97 90 93 88 87 97 96 85 88 92 88 98 100 90 97 98 88 84 87 92 91 87 83 83 89 95 92 94 96 91 66 38 28 27 24 22 22 21 18 15 12 10 9
92 82 88 91 86 98 98 91 87 88 85 91 91 100 99 98 92 97 99 97 88 91 90 89 90 93 91 84 59 34 28 28 25 23 23 22 20 18 15 11 9 9 8 7
95 97 85 84 82 77 73 70 72 83 82 83 88 94 90 99 97 96 98 97 99 98 88 75 67 57 38 30 29 27 24 24 24 23 21 18 15 11 10 10 8 7 6 4
81 79 74 71 72 73 73 76 77 81 82 80 81 88 90 98 99 98 98 99 98 97 76 56 32 29 29 28 25 25 27 25 22 19 16 13 10 10 10 8 6 5 4 3
96 93 77 75 75 79 78 87 85 81 83 83 87 90 95 99 99 99 99 99 99 100 76 41 30 29 27 25 26 26 23 21 19 16 13 11 11 9 8 6 5 4 3 3
98 81 84 82 82 78 74 73 88 84 85 91 90 99 100 100 99 99 99 99 100 100 92 35 31 29 26 26 26 24 22 20 16 13 11 11 10 8 7 6 4 3 3 3
93 99 89 76 84 86 82 74 81 81 87 91 93 98 100 99 100 100 99 100 99 100 66 35 31 29 26 28 26 22 21 17 14 11 12 11 9 8 7 5 4 3 3 2
92 92 99 100 92 91 89 85 82 83 90 90 96 96 97 100 100 100 99 100 98 75 46 32 31 27 28 28 23 22 18 15 12 12 12 11 9 8 6 5 4 4 3 3
72 77 88 90 91 96 96 96 95 97 94 96 98 99 100 99 99 97 98 96 74 48 33 32 30 27 29 27 23 21 17 14 13 13 13 12 10 8 6 4 4 4 4 3
88 80 69 70 83 94 95 94 98 99 100 100 99 99 97 86 81 80 78 70 50 35 32 31 28 28 30 25 23 20 16 14 14 15 15 12 10 8 6 4 4 5 5 4
100 96 84 81 78 94 94 97 96 100 98 100 98 90 87 84 77 72 66 52 38 35 32 30 28 30 30 24 23 18 16 15 15 16 16 13 10 7 5 4 5 5 6 5
99 100 99 100 100 99 100 100 99 98 96 94 92 90 92 84 74 66 57 44 36 33 31 28 29 31 28 23 22 18 16 16 16 18 17 14 10 7 5 5 5 6 10 8
82 82 91 98 97 98 98 99 98 97 94 91 84 86 96 94 76 62 51 42 36 33 30 29 30 32 26 23 22 18 17 17 17 19 18 13 9 6 5 5 6 9 13 13
55 50 53 60 70 95 96 98 99 99 100 100 98 91 96 97 94 72 43 35 34 33 30 29 32 32 26 23 22 18 18 18 19 20 17 12 8 6 6 6 9 12 16 17
68 66 59 52 48 47 50 58 70 87 94 98 98 98 96 96 97 96 92 74 45 34 31 30 32 32 25 23 22 20 19 19 20 21 18 11 7 6 6 8 12 15 18 21
71 70 69 67 63 57 51 46 50 73 89 92 95 100 99 96 96 93 96 97 76 44 32 31 32 32 24 23 23 23 23 21 21 21 17 10 7 6 7 12 16 19 24 32
63 66 66 68 69 67 66 62 51 49 63 94 100 100 100 99 98 96 97 97 97 93 42 32 33 31 24 23 32 39 27 22 22 21 14 9 7 7 10 16 22 30 41 54
6 6 10 25 51 67 70 65 68 64 59 71 96 100 100 98 97 96 95 96 97 97 58 36 33 31 23 30 64 52 29 23 22 20 12 8 7 8 15 26 36 49 56 56

GFSNGP_700_rhum_054.txt.gz
RH
77 80 88 85 76 79 83 82 73 49 55 68 84 85 85 94 86 91 90 73 80 47 62 68 59 70 71 81 81 77 80 74 84 72 67 60 56 66 81 81 83 80 87 97
75 74 76 73 72 84 79 73 69 60 67 83 90 82 91 94 84 91 90 90 74 37 59 49 60 71 86 92 70 63 58 59 60 63 75 90 92 100 100 84 100 100 100 100
78 81 86 70 57 58 59 54 55 67 79 95 83 88 94 99 92 96 89 87 85 55 40 62 90 100 98 100 100 90 68 71 94 100 88 81 95 97 98 87 85 99 99 98
86 83 96 70 78 76 72 77 81 84 88 92 91 92 97 100 98 100 100 99 95 88 95 99 100 100 100 100 88 96 95 97 99 98 99 85 98 99 100 100 100 99 99 99
91 97 70 62 82 77 77 83 83 90 87 92 92 92 97 100 90 100 98 80 100 97 99 100 100 100 100 95 79 90 92 99 98 99 95 99 99 98 99 99 96 100 100 100
96 88 95 88 91 83 83 84 88 89 84 91 95 92 96 87 85 92 100 99 99 88 96 99 100 100 99 100 83 98 100 100 99 99 99 100 100 100 100 99 98 98 98 97
78 83 75 79 91 90 94 91 86 94 83 89 98 98 99 91 79 80 82 81 96 100 98 97 68 85 97 99 99 98 99 98 99 98 98 97 97 97 97 97 97 89 60 31
87 87 86 78 91 99 99 100 86 95 90 92 88 92 99 96 84 75 74 80 73 95 99 90 85 97 100 97 94 94 94 92 93 96 97 97 97 81 46 27 23 21 20 16
80 72 92 98 99 100 97 98 92 93 97 94 91 94 97 99 89 86 80 80 78 76 88 99 98 93 97 93 93 94 93 96 97 86 47 30 26 22 21 20 17 13 10 9
95 92 93 99 100 94 90 92 92 94 92 95 97 99 97 98 98 88 85 80 84 84 83 87 87 89 96 94 94 87 59 34 29 27 23 22 21 19 16 12 10 9 8 6
88 90 97 95 100 98 93 91 86 86 89 90 93 94 96 99 98 95 86 94 89 86 87 88 85 88 88 64 36 29 28 25 23 23 22 20 16 12 10 10 8 7 5 4
98 94 91 92 94 91 79 71 68 71 76 87 84 90 95 95 100 95 92 98 99 85 74 73 66 50 33 29 28 25 24 24 22 21 18 14 11 11 10 8 7 6 4 3
86 84 80 76 78 74 72 73 77 81 78 85 82 83 86 91 99 99 97 96 96 93 78 54 34 31 30 28 25 25 25 23 21 18 14 12 11 10 9 8 6 4 3 3
97 82 86 86 81 72 71 73 77 87 85 83 84 87 95 98 99 99 99 96 98 99 75 48 32 31 28 26 27 27 24 22 18 15 12 12 11 10 9 8 6 4 3 3
87 95 99 94 87 85 81 75 71 70 81 86 87 91 100 99 99 100 99 98 100 100 99 42 32 30 27 27 28 26 23 20 16 13 12 12 11 10 9 8 6 4 3 3
86 89 94 98 100 80 76 78 81 76 77 85 86 91 100 99 99 100 94 99 100 99 100 40 32 30 27 29 28 24 22 18 15 13 13 13 12 11 10 8 6 4 3 3
80 90 89 96 100 100 100 97 90 85 82 83 88 91 98 99 98 99 99 99 100 100 90 43 33 30 27 29 28 23 21 17 14 13 14 15 15 13 11 8 6 4 4 4
66 76 85 83 85 100 100 100 98 98 96 98 98 98 99 99 99 99 99 100 100 98 64 39 33 29 28 29 26 23 20 16 14 14 16 17 17 14 11 8 6 4 4 4
99 96 82 68 74 88 97 98 96 94 99 97 96 96 100 99 99 99 98 99 99 81 52 36 33 29 28 30 25 23 20 16 15 16 17 19 19 15 11 8 5 4 4 6
98 99 99 98 88 79 76 96 98 95 98 98 100 100 100 99 97 92 84 85 86 58 42 36 33 29 29 30 25 24 20 17 16 17 18 20 20 16 11 7 5 5 5 7
96 98 99 99 99 100 97 93 95 99 99 100 100 99 96 93 91 80 73 67 62 45 36 34 32 29 30 31 25 24 21 18 17 18 19 21 21 17 11 7 5 5 6 10
85 91 93 93 97 98 100 100 100 100 99 98 96 93 93 94 95 84 68 57 51 42 36 33 31 29 31 31 26 24 22 19 18 19 20 22 22 18 11 7 5 6 10 13
66 60 57 55 69 84 80 87 98 98 98 98 99 94 89 90 98 91 79 59 44 36 34 33 31 30 31 32 27 24 23 20 19 21 21 22 22 18 11 7 6 8 14 18
75 72 69 67 65 59 52 49 55 64 73 80 87 99 98 98 97 98 96 80 64 45 40 36 33 30 31 33 28 24 23 21 22 23 23 23 22 17 10 7 7 12 21 25
78 73 69 68 65 64 64 64 59 53 50 54 77 92 100 100 100 100 98 95 93 84 68 50 44 35 32 33 29 24 23 25 35 31 26 28 25 16 10 7 8 20 29 37
54 46 40 37 39 46 54 57 64 65 63 58 54 64 88 100 100 100 99 98 97 97 96 97 95 74 38 37 30 24 24 44 57 35 35 37 26 15 9 7 13 30 40 48
3 3 2 2 2 2 2 4 25 54 68 67 67 65 66 88 100 100 99 99 97 97 96 97 97 85 53 52 42 42 41 70 76 43 55 44 22 13 8 8 22 42 49 52

GFSNGP_700_rhum_057.txt.gz
RH
72 77 81 82 76 81 84 75 69 45 43 62 77 83 85 93 98 98 92 84 63 42 28 30 32 31 28 28 31 31 39 48 55 60 72 79 84 81 83 67 77 79 47 76
79 77 76 73 77 83 77 73 66 56 58 77 82 84 90 96 96 97 95 76 61 39 28 31 26 27 27 33 50 50 57 44 51 57 67 80 78 96 96 89 99 100 100 99
80 76 84 80 64 60 60 58 56 58 71 78 81 85 93 98 100 99 99 79 54 48 56 64 54 64 67 74 68 73 80 86 75 87 92 91 94 98 98 97 98 93 99 100
87 78 92 69 81 82 72 62 66 78 83 83 86 92 98 100 99 94 100 76 50 59 74 78 88 83 81 77 81 78 80 88 93 90 100 87 98 96 99 99 98 100 100 100
91 88 64 62 79 78 81 84 83 86 83 86 89 93 91 87 79 80 84 89 76 83 88 80 75 79 78 80 83 92 92 99 100 98 96 98 98 99 99 100 98 98 100 99
95 90 88 88 90 89 86 92 91 92 85 84 92 96 88 82 77 74 76 83 98 100 100 82 80 69 79 85 86 88 97 99 99 96 100 99 99 98 98 96 97 97 97 97
88 85 71 86 88 96 96 96 94 94 88 86 88 92 89 85 85 79 77 75 72 100 100 98 68 82 85 95 94 88 96 99 97 96 96 96 96 96 97 99 86 55 28 22
97 83 76 73 85 97 99 99 95 94 94 86 86 85 95 100 94 81 75 71 67 93 100 97 87 95 96 94 90 89 90 91 91 91 91 78 51 31 24 22 21 19 14 11
79 68 93 92 99 98 98 98 98 94 93 94 84 85 94 98 100 92 81 75 73 73 86 91 89 90 90 87 84 87 90 87 50 29 26 23 22 20 18 15 11 10 8 7
93 93 85 96 98 99 98 96 94 92 90 90 92 92 91 98 97 99 88 77 79 79 83 86 87 87 90 88 77 47 30 27 24 23 23 21 18 14 11 10 9 8 5 4
86 85 94 95 98 99 99 93 90 85 82 84 91 88 89 98 97 98 98 84 82 84 87 86 85 85 68 38 29 28 25 24 25 23 20 17 12 10 10 8 8 6 4 4
89 96 88 91 99 99 97 87 76 71 71 74 88 85 87 91 100 99 99 95 79 78 75 76 67 46 30 29 26 24 26 25 23 20 16 12 11 10 9 8 7 6 4 4
84 81 86 84 88 86 79 76 73 77 86 85 87 87 83 87 95 99 100 98 100 89 73 57 36 31 30 27 25 27 25 23 20 16 13 12 11 10 10 10 8 6 5 4
82 97 84 85 84 85 84 82 77 80 82 86 88 86 86 95 97 99 100 99 96 99 81 59 35 32 29 26 27 27 24 22 19 15 12 12 12 12 11 11 10 7 5 4
89 85 87 94 100 98 93 86 86 85 80 77 75 88 92 100 98 99 99 99 99 100 100 74 41 32 30 26 28 27 24 22 18 14 13 13 13 13 13 12 10 7 5 4
86 84 86 81 90 100 100 96 81 82 87 83 79 89 90 99 100 99 100 99 99 98 100 99 53 34 31 27 29 27 24 22 17 14 14 14 16 16 16 14 10 8 5 4
85 94 94 81 94 100 100 100 100 100 98 93 87 89 92 99 100 99 100 97 96 99 100 99 69 37 32 28 29 28 24 22 17 14 14 16 17 19 18 15 12 8 6 4
60 74 82 79 84 87 93 95 98 98 98 100 100 99 100 100 100 99 99 99 99 96 100 97 62 39 33 28 29 28 24 22 18 15 15 17 19 21 21 17 13 8 6 4
90 99 98 94 80 74 76 84 96 99 98 99 98 96 99 99 99 99 99 99 99 98 99 91 55 39 34 29 29 29 24 23 18 16 16 17 20 22 23 21 15 9 6 5
99 98 97 98 100 98 85 76 85 97 99 96 90 97 98 100 99 98 99 98 98 98 98 92 56 43 35 29 30 30 25 23 20 17 17 18 20 24 25 24 17 10 6 5
97 96 97 98 99 98 100 100 91 88 98 99 99 98 99 99 99 98 96 95 95 93 96 73 52 39 34 30 30 31 26 24 22 19 18 19 22 26 26 25 18 11 6 6
73 87 89 92 96 97 98 98 99 99 99 100 99 98 99 98 97 97 96 88 81 79 92 80 60 56 36 30 30 31 28 25 23 21 20 22 28 28 29 28 19 11 6 9
78 74 72 69 65 68 75 82 82 91 97 99 99 98 98 97 96 94 96 95 92 91 75 61 57 55 40 31 30 32 31 26 24 22 22 31 38 31 39 35 20 10 7 14
78 76 72 71 72 71 66 63 60 55 57 64 75 83 85 95 98 98 96 96 89 89 84 51 41 41 40 34 32 32 33 27 24 23 25 47 42 39 52 38 17 9 7 20
85 87 84 75 66 62 58 56 56 56 59 60 55 50 60 78 87 88 98 99 98 97 94 85 68 48 41 58 63 51 46 32 26 25 36 64 51 52 60 32 15 8 10 30
69 55 41 27 14 8 6 6 11 21 36 50 61 66 64 59 62 87 100 100 100 100 97 97 97 96 92 94 95 76 54 59 55 79 61 75 55 63 58 25 13 8 18 42
6 4 3 3 2 2 2 2 2 2 2 2 11 38 61 68 66 67 86 100 100 100 97 96 97 96 96 98 98 94 68 88 87 94 94 87 63 76 48 18 10 9 30 47

GFSNGP_700_rhum_063.txt.gz
RH
55 58 66 70 86 94 82 66 68 63 55 52 59 66 76 75 80 84 93 90 79 64 53 42 29 27 23 23 23 22 25 33 33 34 44 42 32 38 45 53 72 81 82 76
66 59 60 64 68 74 71 69 70 54 49 63 59 64 77 81 83 89 96 84 82 65 54 47 36 35 35 34 34 36 39 40 42 47 56 54 53 52 58 64 67 70 89 82
74 71 73 77 49 53 52 52 52 60 48 68 70 76 82 84 85 82 80 79 70 53 48 47 42 38 38 36 43 46 49 53 54 49 57 58 62 66 75 74 72 77 83 87
85 79 82 66 62 63 61 57 55 53 59 63 73 82 84 88 82 76 73 71 73 70 65 47 42 44 42 42 41 47 52 55 51 53 64 68 70 69 68 72 81 95 99 99
86 70 64 59 62 74 74 79 48 46 71 82 84 83 87 86 79 71 69 70 70 72 74 69 63 47 43 39 41 58 60 59 55 60 64 68 68 74 77 81 83 88 91 90
92 85 62 89 73 81 90 96 89 88 88 84 83 88 94 86 81 77 70 65 62 62 78 81 55 50 39 43 62 63 68 68 65 66 72 70 75 80 77 78 85 89 90 85
93 86 75 68 83 88 94 98 92 88 93 82 83 86 89 93 92 85 73 65 60 60 70 73 64 50 52 64 67 70 70 70 70 72 73 76 73 60 37 25 22 19 16 12
89 92 81 60 87 86 100 99 98 90 91 88 81 81 88 93 96 95 85 68 65 64 70 72 68 69 73 73 71 71 71 71 72 57 35 25 24 24 21 15 11 10 8 7
81 81 72 67 89 84 83 94 95 96 93 90 87 84 85 92 95 98 98 79 67 70 67 68 71 71 70 73 73 72 74 56 28 24 24 25 23 18 13 11 9 9 7 6
84 79 76 80 85 88 92 93 97 98 98 92 90 85 89 95 96 94 99 92 73 74 73 72 72 74 75 75 75 52 30 26 24 25 25 21 17 13 11 10 9 9 9 8
86 82 77 78 88 86 84 93 98 97 94 92 90 83 83 88 95 97 98 99 86 76 77 76 76 77 74 54 35 29 26 24 26 26 22 18 14 12 11 10 10 11 12 12
90 91 92 95 92 83 84 85 96 94 86 80 75 74 78 83 88 90 96 94 91 96 80 76 74 71 58 34 29 26 25 27 27 25 21 17 14 13 12 12 12 13 14 14
74 67 70 75 84 96 91 97 98 97 88 79 77 82 85 82 86 88 87 95 96 99 94 79 64 58 40 30 28 25 26 28 26 24 20 16 14 13 13 14 14 16 17 17
76 78 75 76 78 80 94 93 85 85 80 78 75 76 83 85 86 90 94 95 91 93 99 95 77 52 34 31 29 26 27 28 26 24 20 17 15 15 15 16 18 20 21 22
69 78 78 75 84 87 91 88 86 83 78 77 76 74 73 75 79 91 97 99 94 97 99 98 93 69 40 33 30 27 27 28 27 25 22 19 16 16 16 18 20 23 25 27
78 74 72 71 78 83 88 94 88 86 83 79 78 76 73 71 73 81 99 99 100 100 98 99 99 87 61 40 34 30 28 29 28 26 24 21 18 17 17 19 21 24 27 31
83 83 77 76 76 79 79 81 83 84 88 93 90 95 96 88 87 87 99 99 99 100 99 100 100 99 92 86 50 35 30 28 29 28 26 23 20 18 17 18 21 24 28 36
100 88 86 80 69 68 75 81 81 84 97 100 99 100 98 98 97 96 98 99 99 98 97 99 99 99 99 99 86 51 36 30 29 29 27 25 23 19 18 18 20 23 30 39
71 72 79 92 95 86 82 81 76 78 92 96 95 96 98 92 93 94 98 99 99 97 99 99 99 98 99 100 88 60 42 43 32 30 29 26 24 22 19 19 20 22 33 42
95 98 94 91 98 97 97 99 99 88 81 90 93 96 95 99 99 97 94 92 98 96 98 99 99 98 98 97 96 90 83 81 40 30 30 28 26 24 22 20 20 22 36 44
98 98 98 97 98 100 100 98 99 100 92 80 84 92 97 99 99 98 96 99 99 99 99 98 99 98 98 97 97 96 95 93 63 33 31 30 27 26 24 22 21 22 37 42
89 86 85 87 89 89 92 94 96 97 98 98 99 99 99 99 95 98 98 98 98 98 98 97 97 98 98 97 98 96 96 87 57 60 35 31 30 27 25 24 22 22 35 43
80 83 85 86 84 81 79 76 73 71 68 65 67 73 95 98 97 98 98 97 97 97 97 97 98 97 97 96 97 96 95 92 94 74 51 34 32 34 53 50 60 36 38 70
87 87 86 85 83 80 77 75 73 68 62 60 57 57 58 62 81 93 96 98 98 98 98 97 98 97 96 96 96 95 95 95 95 95 80 47 48 61 88 94 93 93 82 88
92 90 87 82 79 81 68 49 38 28 21 20 21 27 40 50 57 63 64 72 84 88 99 98 100 100 99 98 97 97 98 97 95 89 84 86 94 95 95 96 96 94 96 95
92 92 88 80 56 28 10 5 4 3 2 2 2 2 3 5 12 29 48 61 67 67 68 96 100 100 99 99 98 98 97 96 96 96 95 94 96 96 95 97 97 97 98 98
13 10 9 7 6 5 5 4 3 3 2 2 2 2 2 2 2 2 2 6 21 44 66 78 91 95 100 99 99 98 98 98 97 97 96 97 97 97 96 96 96 97 98 96

GFSNGP_700_rhum_066.txt.gz
RH
64 56 57 62 64 88 83 65 58 60 50 49 54 53 65 65 55 76 79 78 78 72 62 60 50 30 27 27 28 28 26 29 34 35 37 40 40 42 34 40 40 45 49 58
62 56 53 51 53 68 77 69 65 61 50 57 61 64 66 58 73 80 79 76 75 80 73 56 49 36 35 37 35 34 37 42 46 46 45 43 43 42 48 47 54 57 59 56
79 75 64 59 35 40 51 50 48 54 39 49 55 57 55 78 82 79 74 74 72 70 58 50 50 43 40 41 37 39 38 44 51 45 42 48 49 47 55 54 55 62 61 56
88 76 96 58 51 54 50 52 52 49 55 71 70 65 75 83 81 78 72 71 69 67 67 64 54 43 46 42 38 39 44 54 52 43 47 50 46 55 60 58 58 60 71 77
86 78 59 56 54 64 73 81 60 51 58 68 66 71 83 82 84 76 69 65 62 58 59 63 67 66 62 45 43 42 56 60 56 56 61 56 58 64 60 59 63 71 79 79
84 83 79 80 71 76 88 89 72 47 52 68 81 84 86 89 83 81 72 66 61 58 60 73 70 58 54 44 47 61 63 67 59 58 61 62 62 63 56 43 50 56 33 15
86 83 73 70 63 87 94 94 94 91 90 87 84 84 94 91 95 94 85 72 64 60 64 67 66 64 54 61 66 68 71 66 64 65 66 58 39 26 24 23 16 11 10 8
88 87 81 61 65 95 96 95 96 92 94 84 81 82 82 90 95 98 95 80 66 63 63 66 69 71 73 72 71 70 68 69 67 48 28 24 24 25 20 13 11 10 9 8
76 74 71 66 59 76 90 96 94 94 92 94 88 84 86 86 90 94 98 89 74 69 70 68 68 70 71 72 70 70 71 62 30 25 24 26 25 19 14 12 10 10 11 11
83 73 75 71 73 71 82 85 84 91 95 96 97 93 86 92 96 95 93 99 87 70 70 71 72 73 74 72 71 66 40 29 25 24 27 26 20 16 14 12 11 11 12 13
76 81 86 80 81 82 86 86 88 92 98 98 92 82 87 85 90 96 98 98 90 86 72 72 75 76 75 69 51 35 29 25 24 27 27 23 18 15 14 12 12 12 14 15
86 91 95 95 88 79 85 82 82 88 100 95 91 86 79 78 82 92 93 92 95 84 89 74 74 75 71 61 40 30 27 25 27 28 25 22 18 16 14 14 14 15 16 18
84 79 82 80 78 78 80 75 84 84 84 94 87 82 78 83 86 88 92 92 96 96 89 96 84 67 64 56 36 30 27 25 28 28 26 23 20 16 16 15 15 17 19 22
68 65 66 69 69 72 78 83 96 96 95 97 93 85 78 76 80 89 93 98 98 98 90 96 97 87 69 49 34 31 28 26 28 28 27 25 22 18 16 15 16 18 22 25
63 69 74 75 71 71 76 79 81 82 86 80 77 78 79 76 72 77 81 90 98 100 100 90 100 99 88 61 37 32 30 27 28 29 28 26 23 20 17 17 17 19 22 25
78 74 70 69 69 70 72 75 77 83 88 85 80 79 78 79 76 74 75 80 91 98 100 99 100 100 97 84 52 37 33 30 28 29 29 28 26 23 20 18 18 19 21 23
87 77 77 74 71 72 71 72 78 80 82 83 82 80 79 86 90 88 90 95 98 98 99 100 96 99 98 95 87 60 42 35 31 28 29 29 28 26 23 20 19 19 20 22
95 100 96 80 75 76 81 80 78 77 77 77 78 80 81 96 97 100 100 100 98 94 100 100 98 99 99 98 98 89 86 54 38 32 29 29 29 27 26 24 22 20 20 21
99 99 95 80 72 78 88 80 70 73 78 79 83 88 89 94 98 100 99 98 100 98 95 98 99 99 99 100 98 97 94 81 55 41 44 39 30 29 28 26 25 23 22 22
87 92 89 77 85 94 95 97 95 100 96 85 78 90 93 95 93 97 97 100 97 94 96 93 89 99 100 99 98 97 96 96 94 83 85 60 36 33 30 28 26 25 24 23
97 98 98 97 97 98 99 100 100 95 98 100 93 86 93 95 96 97 98 98 98 98 99 99 98 99 98 98 98 98 98 98 97 96 96 90 86 42 33 31 28 25 25 26
96 95 93 91 88 86 86 89 92 91 89 92 96 98 98 98 99 98 96 97 98 98 100 98 98 98 98 98 97 97 97 98 97 96 96 82 66 62 41 36 33 30 55 93
78 82 85 86 86 84 81 79 77 76 73 69 68 66 68 77 96 99 99 97 97 97 96 98 98 97 97 95 95 96 97 96 97 97 96 93 94 87 89 93 86 87 95 96
87 88 89 89 90 88 84 76 75 72 55 43 38 38 42 50 59 74 86 97 97 97 98 98 97 97 96 96 97 97 97 97 97 97 96 96 95 95 95 93 92 95 97 96
95 92 90 88 87 85 84 81 65 37 16 6 3 3 5 12 19 32 48 57 64 73 80 86 89 93 93 97 98 99 99 98 98 98 100 98 98 97 96 96 96 96 99 99
50 52 57 54 44 40 28 13 5 4 4 3 3 2 2 2 2 2 3 7 17 34 50 61 65 65 67 87 99 100 100 99 98 99 98 98 97 97 97 96 96 96 97 95
22 20 17 12 8 7 6 6 5 4 3 3 3 3 3 3 2 2 2 2 2 2 2 4 11 23 42 64 90 96 98 100 100 99 98 98 97 97 96 96 96 96 97 96

GFSNGP_700_rhum_069.txt.gz
RH
73 68 55 56 58 72 77 72 60 51 55 54 51 53 55 54 45 46 47 66 72 68 67 66 63 55 45 28 25 26 28 28 31 33 34 33 36 42 45 44 39 40 43 44
69 56 58 53 47 55 64 69 70 57 54 50 60 66 62 58 51 54 69 75 73 72 69 69 66 52 40 31 35 35 37 39 42 43 47 47 43 48 46 44 46 45 48 52
67 76 77 66 38 36 38 47 45 65 48 53 54 56 63 61 58 69 79 75 71 70 70 61 51 50 48 42 39 39 40 38 41 50 46 45 49 48 47 51 50 50 57 62
83 86 87 44 53 48 48 40 44 48 47 53 57 60 60 59 68 82 80 71 66 67 66 68 68 68 48 49 45 44 41 41 54 52 46 50 51 52 56 56 51 56 60 57
80 90 53 58 50 55 60 60 50 44 51 74 65 59 52 68 83 83 78 71 66 62 61 60 64 70 70 69 55 48 45 51 58 57 58 59 57 59 58 55 58 62 52 27
84 87 91 79 70 69 72 83 72 48 52 63 64 64 70 85 89 83 79 74 67 62 58 57 66 75 66 61 54 46 52 63 65 60 61 61 62 53 35 32 30 21 15 10
91 82 72 64 69 83 92 75 74 45 52 57 56 81 90 94 91 94 89 88 74 64 63 67 66 65 63 53 57 65 66 67 64 65 65 49 29 25 24 18 12 11 10 9
95 92 84 60 69 92 83 86 91 91 93 88 88 86 85 83 88 93 99 95 86 68 68 65 65 65 63 64 67 71 70 68 67 56 29 24 25 24 18 14 11 10 11 11
71 64 68 71 63 64 82 88 87 96 97 98 88 84 84 83 89 92 96 100 94 75 67 67 65 66 69 71 72 70 70 69 41 26 24 25 25 20 15 13 11 11 12 13
83 75 75 69 71 72 77 90 89 91 94 98 97 95 94 86 93 94 96 99 96 85 66 68 71 72 72 73 73 73 66 36 28 24 25 26 23 18 15 13 12 12 12 14
82 77 79 81 77 81 81 85 92 83 84 84 97 99 98 96 92 89 96 100 98 90 80 70 76 76 75 73 70 55 35 28 25 25 27 26 22 18 15 14 14 14 14 16
83 81 78 81 78 82 80 84 88 88 88 91 96 96 96 95 92 87 91 94 96 99 91 83 75 76 79 73 66 44 31 28 25 26 28 26 23 19 16 15 15 15 16 19
85 92 94 98 93 89 78 72 78 78 86 87 96 97 95 92 89 86 87 89 94 94 92 92 87 89 71 71 68 46 32 29 26 26 28 26 24 21 18 17 16 16 18 20
77 86 90 95 94 92 81 72 71 76 78 92 98 100 95 89 96 86 86 88 90 94 98 96 93 95 96 82 63 46 33 30 27 27 28 28 26 23 21 18 17 17 18 20
63 72 75 74 72 74 80 76 72 73 74 77 94 96 96 89 92 97 82 79 80 88 96 100 100 99 100 98 82 51 37 33 30 27 28 29 28 26 24 21 18 17 17 19
72 73 76 78 77 71 72 70 70 74 75 78 82 86 86 84 81 88 87 80 76 79 96 100 100 98 100 97 98 89 54 38 33 30 28 28 29 28 27 25 22 19 19 19
80 83 89 88 83 82 79 74 72 72 75 80 83 87 90 87 81 80 85 88 84 81 94 98 100 97 97 90 99 99 95 62 42 36 32 29 29 29 28 27 25 23 22 21
78 86 98 99 99 87 84 78 76 77 76 74 77 77 79 82 85 84 97 100 99 100 99 99 93 97 100 97 97 100 98 96 86 66 42 36 31 30 29 29 27 26 25 24
82 84 99 99 100 98 89 82 83 84 71 67 69 75 77 79 82 89 94 100 100 100 100 99 99 99 98 92 98 99 98 98 97 96 93 87 63 38 42 33 29 28 27 26
86 92 90 85 78 79 88 92 95 94 98 100 97 82 80 83 90 95 98 98 98 98 100 95 96 100 99 97 97 99 100 99 98 97 97 96 94 93 92 50 48 44 31 29
97 97 97 98 97 97 97 98 98 99 99 99 100 100 95 84 89 97 97 94 94 95 95 99 98 98 98 98 97 100 99 98 98 98 97 96 96 96 96 95 78 47 39 35
97 97 96 96 96 94 89 86 86 87 84 83 87 89 88 94 96 98 96 96 98 98 97 97 98 98 98 98 98 98 98 97 97 97 97 97 97 96 96 93 85 82 84 91
79 83 87 90 90 88 87 86 83 79 76 75 65 54 52 59 62 72 91 99 100 100 100 99 99 98 98 97 98 97 98 97 97 97 97 96 97 97 96 96 96 97 97 96
91 89 89 89 88 87 86 83 78 74 76 74 60 34 16 21 27 34 50 67 85 96 98 98 97 97 97 97 97 97 97 97 97 97 97 97 96 96 97 97 96 97 97 96
96 93 92 90 87 85 84 80 74 69 44 16 6 4 3 3 3 4 11 20 34 52 64 73 82 83 85 90 93 96 97 99 98 98 100 100 99 98 98 98 97 98 97 97
53 44 35 30 26 21 14 8 7 6 6 5 4 3 3 3 2 2 2 2 2 3 5 12 23 36 46 56 64 68 95 97 100 100 100 98 98 98 97 98 97 98 97 97
59 45 24 22 20 14 9 8 8 8 6 5 4 4 4 4 3 3 3 3 3 2 2 2 2 2 2 2 4 9 27 44 80 96 100 100 99 98 99 98 97 98 98 97